| time (UTC) | temp C | wind direction | speed KPH | gust KPH | rain 1hr cm | rain 24hr cm | rain mn cm | humidity % | barometer mb |
| 20260502210854 | 8 | 290 | 9.7 | 14.5 | 0.00 | 0.00 | 0.00 | 47 | 1015.6 |
| 20260502210731 | 8 | 28 | 6.4 | 14.5 | 0.00 | 0.00 | 0.00 | 47 | 1015.6 |
| 20260502210613 | 8 | 24 | 4.8 | 12.9 | 0.00 | 0.00 | 0.00 | 47 | 1015.6 |
| 20260502210430 | 8 | 311 | 4.8 | 14.5 | 0.00 | 0.00 | 0.00 | 47 | 1015.6 |
| 20260502210309 | 8 | 299 | 4.8 | 19.3 | 0.00 | 0.00 | 0.00 | 47 | 1015.6 |
| 20260502210147 | 8 | 325 | 6.4 | 19.3 | 0.00 | 0.00 | 0.00 | 47 | 1015.6 |
| 20260502210012 | 8 | 327 | 6.4 | 19.3 | 0.00 | 0.00 | 0.00 | 48 | 1015.6 |
| 20260502205852 | 8 | 341 | 4.8 | 19.3 | 0.00 | 0.00 | 0.00 | 47 | 1015.7 |
| 20260502205707 | 8 | 340 | 9.7 | 19.3 | 0.00 | 0.00 | 0.00 | 46 | 1015.7 |
| 20260502205545 | 8 | 309 | 9.7 | 19.3 | 0.00 | 0.00 | 0.00 | 47 | 1015.7 |
| 20260502205409 | 8 | 336 | 9.7 | 19.3 | 0.00 | 0.00 | 0.00 | 47 | 1015.7 |
| 20260502205226 | 8 | 341 | 9.7 | 19.3 | 0.00 | 0.00 | 0.00 | 47 | 1015.6 |
| 20260502205042 | 8 | 331 | 9.7 | 19.3 | 0.00 | 0.00 | 0.00 | 46 | 1015.7 |
| 20260502204920 | 8 | 331 | 8.0 | 19.3 | 0.00 | 0.00 | 0.00 | 46 | 1015.7 |
| 20260502204759 | 8 | 329 | 11.3 | 19.3 | 0.00 | 0.00 | 0.00 | 46 | 1015.7 |
| 20260502204640 | 8 | 315 | 8.0 | 19.3 | 0.00 | 0.00 | 0.00 | 48 | 1015.7 |
| 20260502204516 | 8 | 321 | 9.7 | 19.3 | 0.00 | 0.00 | 0.00 | 47 | 1015.7 |
| 20260502204354 | 8 | 296 | 6.4 | 19.3 | 0.00 | 0.00 | 0.00 | 48 | 1015.7 |
| 20260502204231 | 8 | 318 | 6.4 | 19.3 | 0.00 | 0.00 | 0.00 | 47 | 1015.7 |
| 20260502204054 | 8 | 304 | 6.4 | 19.3 | 0.00 | 0.00 | 0.00 | 47 | 1015.7 |
| 20260502203910 | 8 | 284 | 8.0 | 19.3 | 0.00 | 0.00 | 0.00 | 47 | 1015.7 |
| 20260502203753 | 8 | 344 | 8.0 | 19.3 | 0.00 | 0.00 | 0.00 | 47 | 1015.8 |
| 20260502203610 | 8 | 335 | 11.3 | 19.3 | 0.00 | 0.00 | 0.00 | 47 | 1015.8 |
| 20260502203451 | 8 | 280 | 8.0 | 14.5 | 0.00 | 0.00 | 0.00 | 49 | 1015.9 |
| 20260502203333 | 8 | 349 | 8.0 | 14.5 | 0.00 | 0.00 | 0.00 | 48 | 1015.8 |
| 20260502203149 | 7 | 311 | 3.2 | 16.1 | 0.00 | 0.00 | 0.00 | 48 | 1015.8 |
| 20260502203004 | 7 | 282 | 4.8 | 17.7 | 0.00 | 0.00 | 0.00 | 48 | 1015.9 |
| 20260502202829 | 7 | 270 | 6.4 | 17.7 | 0.00 | 0.00 | 0.00 | 48 | 1015.9 |
| 20260502202709 | 7 | 302 | 8.0 | 17.7 | 0.00 | 0.00 | 0.00 | 47 | 1015.9 |
| 20260502202545 | 7 | 313 | 8.0 | 17.7 | 0.00 | 0.00 | 0.00 | 47 | 1015.9 |
| 20260502202423 | 7 | 277 | 11.3 | 17.7 | 0.00 | 0.00 | 0.00 | 47 | 1015.9 |
| 20260502202306 | 7 | 324 | 14.5 | 17.7 | 0.00 | 0.00 | 0.00 | 47 | 1016.0 |
| 20260502202124 | 7 | 296 | 9.7 | 17.7 | 0.00 | 0.00 | 0.00 | 48 | 1016.0 |
| 20260502202003 | 7 | 205 | 6.4 | 17.7 | 0.00 | 0.00 | 0.00 | 48 | 1016.0 |
| 20260502201821 | 7 | 347 | 4.8 | 14.5 | 0.00 | 0.00 | 0.00 | 49 | 1016.0 |
| 20260502201700 | 7 | 293 | 4.8 | 19.3 | 0.00 | 0.00 | 0.00 | 48 | 1016.1 |
| 20260502201542 | 7 | 323 | 6.4 | 19.3 | 0.00 | 0.00 | 0.00 | 48 | 1016.1 |
| 20260502201358 | 7 | 338 | 8.0 | 25.7 | 0.00 | 0.00 | 0.00 | 48 | 1016.1 |
| 20260502201235 | 7 | 296 | 6.4 | 25.7 | 0.00 | 0.00 | 0.00 | 48 | 1016.1 |
| 20260502201051 | 7 | 338 | 11.3 | 25.7 | 0.00 | 0.00 | 0.00 | 47 | 1016.1 |
| 20260502200916 | 7 | 291 | 12.9 | 25.7 | 0.00 | 0.00 | 0.00 | 48 | 1016.1 |
| 20260502200754 | 7 | 333 | 9.7 | 25.7 | 0.00 | 0.00 | 0.00 | 48 | 1016.1 |
| 20260502200633 | 7 | 312 | 9.7 | 25.7 | 0.00 | 0.00 | 0.00 | 48 | 1016.1 |
| 20260502200511 | 7 | 297 | 0.0 | 17.7 | 0.00 | 0.00 | 0.00 | 47 | 1016.1 |
| 20260502200332 | 7 | 290 | 4.8 | 17.7 | 0.00 | 0.00 | 0.00 | 47 | 1016.2 |
| 20260502200210 | 7 | 306 | 9.7 | 17.7 | 0.00 | 0.00 | 0.00 | 47 | 1016.2 |
| 20260502200050 | 7 | 272 | 8.0 | 17.7 | 0.00 | 0.00 | 0.00 | 46 | 1016.3 |
| 20260502195911 | 8 | 275 | 8.0 | 17.7 | 0.00 | 0.00 | 0.00 | 46 | 1016.3 |
| 20260502195732 | 8 | 315 | 11.3 | 17.7 | 0.00 | 0.00 | 0.00 | 46 | 1016.3 |
| 20260502195552 | 8 | 254 | 11.3 | 17.7 | 0.00 | 0.00 | 0.00 | 47 | 1016.2 |
| 20260502195432 | 8 | 294 | 4.8 | 17.7 | 0.00 | 0.00 | 0.00 | 48 | 1016.3 |
| 20260502195310 | 8 | 280 | 4.8 | 20.9 | 0.00 | 0.00 | 0.00 | 49 | 1016.3 |
| 20260502195149 | 8 | 294 | 9.7 | 22.5 | 0.00 | 0.00 | 0.00 | 48 | 1016.3 |
| 20260502195029 | 8 | 311 | 9.7 | 22.5 | 0.00 | 0.00 | 0.00 | 47 | 1016.3 |
| 20260502194909 | 8 | 270 | 4.8 | 22.5 | 0.00 | 0.00 | 0.00 | 47 | 1016.3 |
| 20260502194750 | 8 | 243 | 9.7 | 22.5 | 0.00 | 0.00 | 0.00 | 46 | 1016.4 |
| 20260502194606 | 8 | 259 | 12.9 | 22.5 | 0.00 | 0.00 | 0.00 | 46 | 1016.4 |
| 20260502194446 | 8 | 219 | 14.5 | 22.5 | 0.00 | 0.00 | 0.00 | 47 | 1016.4 |
| 20260502194324 | 8 | 264 | 16.1 | 22.5 | 0.00 | 0.00 | 0.00 | 47 | 1016.4 |
| 20260502194204 | 8 | 267 | 12.9 | 22.5 | 0.00 | 0.00 | 0.00 | 47 | 1016.4 |
| 20260502194042 | 7 | 300 | 11.3 | 20.9 | 0.00 | 0.00 | 0.00 | 47 | 1016.4 |
| 20260502193924 | 7 | 289 | 9.7 | 19.3 | 0.00 | 0.00 | 0.00 | 46 | 1016.5 |
| 20260502193802 | 7 | 277 | 11.3 | 17.7 | 0.00 | 0.00 | 0.00 | 46 | 1016.4 |
| 20260502193641 | 7 | 321 | 11.3 | 17.7 | 0.00 | 0.00 | 0.00 | 46 | 1016.4 |
| 20260502193518 | 7 | 312 | 11.3 | 17.7 | 0.00 | 0.00 | 0.00 | 46 | 1016.5 |
| 20260502193343 | 7 | 277 | 12.9 | 17.7 | 0.00 | 0.00 | 0.00 | 47 | 1016.5 |
| 20260502193221 | 7 | 315 | 9.7 | 20.9 | 0.00 | 0.00 | 0.00 | 48 | 1016.5 |
| 20260502193059 | 7 | 279 | 6.4 | 25.7 | 0.00 | 0.00 | 0.00 | 47 | 1016.5 |
| 20260502192936 | 7 | 265 | 6.4 | 25.7 | 0.00 | 0.00 | 0.00 | 46 | 1016.5 |
| 20260502192801 | 7 | 260 | 9.7 | 25.7 | 0.00 | 0.00 | 0.00 | 47 | 1016.5 |
| 20260502192640 | 7 | 322 | 11.3 | 25.7 | 0.00 | 0.00 | 0.00 | 47 | 1016.6 |
| 20260502192456 | 7 | 291 | 16.1 | 25.7 | 0.00 | 0.00 | 0.00 | 47 | 1016.6 |
| 20260502192336 | 7 | 296 | 16.1 | 25.7 | 0.00 | 0.00 | 0.00 | 48 | 1016.6 |
| 20260502192215 | 7 | 315 | 11.3 | 22.5 | 0.00 | 0.00 | 0.00 | 48 | 1016.6 |
| 20260502192054 | 7 | 272 | 8.0 | 19.3 | 0.00 | 0.00 | 0.00 | 48 | 1016.6 |
| 20260502191931 | 7 | 275 | 6.4 | 19.3 | 0.00 | 0.00 | 0.00 | 47 | 1016.6 |
| 20260502191811 | 7 | 251 | 6.4 | 19.3 | 0.00 | 0.00 | 0.00 | 47 | 1016.7 |
| 20260502191649 | 7 | 264 | 8.0 | 19.3 | 0.00 | 0.00 | 0.00 | 47 | 1016.6 |
| 20260502191531 | 7 | 260 | 8.0 | 19.3 | 0.00 | 0.00 | 0.00 | 47 | 1016.7 |
| 20260502191411 | 7 | 288 | 12.9 | 19.3 | 0.00 | 0.00 | 0.00 | 47 | 1016.7 |
| 20260502191248 | 7 | 270 | 9.7 | 14.5 | 0.00 | 0.00 | 0.00 | 48 | 1016.7 |
| 20260502191130 | 7 | 277 | 3.2 | 14.5 | 0.00 | 0.00 | 0.00 | 49 | 1016.7 |
| 20260502191013 | 7 | 299 | 3.2 | 14.5 | 0.00 | 0.00 | 0.00 | 49 | 1016.7 |
| 20260502190851 | 7 | 297 | 8.0 | 14.5 | 0.00 | 0.00 | 0.00 | 48 | 1016.7 |
| 20260502190708 | 7 | 319 | 6.4 | 14.5 | 0.00 | 0.00 | 0.00 | 49 | 1016.7 |
| 20260502190525 | 7 | 346 | 6.4 | 14.5 | 0.00 | 0.00 | 0.00 | 49 | 1016.7 |
| 20260502190351 | 7 | 292 | 8.0 | 14.5 | 0.00 | 0.00 | 0.00 | 49 | 1016.7 |
| 20260502190209 | 7 | 336 | 8.0 | 17.7 | 0.00 | 0.00 | 0.00 | 49 | 1016.7 |
| 20260502190051 | 7 | 300 | 9.7 | 17.7 | 0.00 | 0.00 | 0.00 | 48 | 1016.7 |
| 20260502185930 | 7 | 309 | 9.7 | 17.7 | 0.00 | 0.00 | 0.00 | 48 | 1016.8 |
| 20260502185813 | 7 | 306 | 9.7 | 20.9 | 0.00 | 0.00 | 0.00 | 48 | 1016.7 |
| 20260502185656 | 7 | 311 | 6.4 | 20.9 | 0.00 | 0.00 | 0.00 | 47 | 1016.7 |
| 20260502185536 | 7 | 355 | 6.4 | 20.9 | 0.00 | 0.00 | 0.00 | 47 | 1016.8 |
| 20260502185412 | 7 | 269 | 11.3 | 20.9 | 0.00 | 0.00 | 0.00 | 48 | 1016.8 |
| 20260502185249 | 7 | 292 | 12.9 | 20.9 | 0.00 | 0.00 | 0.00 | 46 | 1016.9 |
| 20260502185052 | 7 | 301 | 14.5 | 20.9 | 0.00 | 0.00 | 0.00 | 47 | 1016.8 |
| 20260502184932 | 7 | 294 | 8.0 | 19.3 | 0.00 | 0.00 | 0.00 | 48 | 1016.8 |
| 20260502184810 | 7 | 294 | 8.0 | 20.9 | 0.00 | 0.00 | 0.00 | 48 | 1016.9 |
| 20260502184648 | 7 | 284 | 8.0 | 22.5 | 0.00 | 0.00 | 0.00 | 48 | 1016.9 |
| 20260502184527 | 7 | 272 | 11.3 | 24.1 | 0.00 | 0.00 | 0.00 | 48 | 1016.9 |
| 20260502184407 | 7 | 304 | 11.3 | 24.1 | 0.00 | 0.00 | 0.00 | 48 | 1017.0 |
| 20260502184243 | 7 | 286 | 9.7 | 24.1 | 0.00 | 0.00 | 0.00 | 48 | 1016.9 |
| 20260502184121 | 7 | 244 | 11.3 | 24.1 | 0.00 | 0.00 | 0.00 | 48 | 1016.9 |
| 20260502184002 | 7 | 294 | 14.5 | 24.1 | 0.00 | 0.00 | 0.00 | 48 | 1017.0 |
| 20260502183842 | 7 | 261 | 14.5 | 24.1 | 0.00 | 0.00 | 0.00 | 49 | 1017.0 |
| 20260502183637 | 7 | 304 | 12.9 | 22.5 | 0.00 | 0.00 | 0.00 | 49 | 1016.9 |
| 20260502183515 | 7 | 301 | 9.7 | 20.9 | 0.00 | 0.00 | 0.00 | 49 | 1017.0 |
| 20260502183354 | 7 | 333 | 8.0 | 20.9 | 0.00 | 0.00 | 0.00 | 49 | 1017.0 |
| 20260502183235 | 7 | 291 | 8.0 | 20.9 | 0.00 | 0.00 | 0.00 | 49 | 1017.0 |
| 20260502183113 | 7 | 301 | 12.9 | 20.9 | 0.00 | 0.00 | 0.00 | 49 | 1017.0 |
| 20260502182828 | 7 | 248 | 12.9 | 19.3 | 0.00 | 0.00 | 0.00 | 50 | 1017.0 |
| 20260502182710 | 7 | 279 | 9.7 | 22.5 | 0.00 | 0.00 | 0.00 | 50 | 1017.0 |
| 20260502182550 | 7 | 275 | 6.4 | 22.5 | 0.00 | 0.00 | 0.00 | 50 | 1017.0 |
| 20260502182428 | 7 | 297 | 9.7 | 22.5 | 0.00 | 0.00 | 0.00 | 50 | 1016.9 |
| 20260502182244 | 7 | 299 | 8.0 | 22.5 | 0.00 | 0.00 | 0.00 | 49 | 1017.0 |
| 20260502182127 | 7 | 264 | 12.9 | 22.5 | 0.00 | 0.00 | 0.00 | 49 | 1017.0 |
| 20260502182004 | 7 | 282 | 11.3 | 22.5 | 0.00 | 0.00 | 0.00 | 50 | 1017.0 |
| 20260502181843 | 7 | 290 | 9.7 | 22.5 | 0.00 | 0.00 | 0.00 | 50 | 1017.0 |
| 20260502181721 | 7 | 290 | 12.9 | 22.5 | 0.00 | 0.00 | 0.00 | 49 | 1017.0 |
| 20260502181558 | 7 | 290 | 12.9 | 22.5 | 0.00 | 0.00 | 0.00 | 49 | 1017.1 |
| 20260502181440 | 7 | 289 | 11.3 | 22.5 | 0.00 | 0.00 | 0.00 | 50 | 1017.1 |
| 20260502181317 | 7 | 318 | 14.5 | 22.5 | 0.00 | 0.00 | 0.00 | 49 | 1017.0 |
| 20260502181155 | 7 | 308 | 14.5 | 22.5 | 0.00 | 0.00 | 0.00 | 48 | 1017.1 |
| 20260502181033 | 7 | 282 | 11.3 | 17.7 | 0.00 | 0.00 | 0.00 | 48 | 1017.0 |
| 20260502180914 | 7 | 296 | 6.4 | 20.9 | 0.00 | 0.00 | 0.00 | 48 | 1017.1 |
| 20260502180751 | 7 | 233 | 4.8 | 27.4 | 0.00 | 0.00 | 0.00 | 50 | 1017.0 |
| 20260502180629 | 7 | 292 | 4.8 | 27.4 | 0.00 | 0.00 | 0.00 | 50 | 1017.1 |
| 20260502180510 | 7 | 302 | 9.7 | 27.4 | 0.00 | 0.00 | 0.00 | 48 | 1017.1 |
| 20260502180353 | 7 | 320 | 9.7 | 27.4 | 0.00 | 0.00 | 0.00 | 48 | 1017.1 |
| 20260502180231 | 7 | 318 | 11.3 | 27.4 | 0.00 | 0.00 | 0.00 | 47 | 1017.1 |
| 20260502180108 | 7 | 279 | 17.7 | 27.4 | 0.00 | 0.00 | 0.00 | 47 | 1017.1 |
| 20260502170412 | 6 | 286 | 9.7 | 19.3 | 0.00 | 0.00 | 0.00 | 46 | 1017.5 |
| 20260502170236 | 6 | 291 | 14.5 | 19.3 | 0.00 | 0.00 | 0.00 | 46 | 1017.5 |
| 20260502170112 | 6 | 286 | 9.7 | 19.3 | 0.00 | 0.00 | 0.00 | 47 | 1017.5 |
| 20260502164246 | 6 | 289 | 16.1 | 20.9 | 0.00 | 0.00 | 0.00 | 47 | 1017.5 |
| 20260502164126 | 6 | 296 | 12.9 | 20.9 | 0.00 | 0.00 | 0.00 | 48 | 1017.6 |
| 20260502163951 | 6 | 257 | 6.4 | 19.3 | 0.00 | 0.00 | 0.00 | 47 | 1017.5 |
| 20260502163829 | 6 | 306 | 8.0 | 19.3 | 0.00 | 0.00 | 0.00 | 47 | 1017.6 |
| 20260502163647 | 6 | 291 | 6.4 | 19.3 | 0.00 | 0.00 | 0.00 | 48 | 1017.5 |
| 20260502163520 | 6 | 301 | 6.4 | 19.3 | 0.00 | 0.00 | 0.00 | 47 | 1017.6 |
| 20260502163357 | 6 | 360 | 11.3 | 19.3 | 0.00 | 0.00 | 0.00 | 48 | 1017.6 |
| 20260502163238 | 6 | 308 | 12.9 | 19.3 | 0.00 | 0.00 | 0.00 | 48 | 1017.6 |
| 20260502163115 | 6 | 293 | 9.7 | 20.9 | 0.00 | 0.00 | 0.00 | 49 | 1017.6 |
| 20260502162952 | 6 | 226 | 8.0 | 24.1 | 0.00 | 0.00 | 0.00 | 49 | 1017.6 |
| 20260502162831 | 6 | 307 | 9.7 | 24.1 | 0.00 | 0.00 | 0.00 | 49 | 1017.6 |
| 20260502162713 | 6 | 293 | 9.7 | 24.1 | 0.00 | 0.00 | 0.00 | 49 | 1017.6 |
| 20260502162551 | 6 | 296 | 9.7 | 24.1 | 0.00 | 0.00 | 0.00 | 48 | 1017.6 |
| 20260502162412 | 6 | 302 | 11.3 | 24.1 | 0.00 | 0.00 | 0.00 | 48 | 1017.6 |
| 20260502162250 | 6 | 294 | 16.1 | 24.1 | 0.00 | 0.00 | 0.00 | 47 | 1017.7 |
| 20260502162111 | 6 | 305 | 16.1 | 24.1 | 0.00 | 0.00 | 0.00 | 48 | 1017.6 |
| 20260502161947 | 6 | 310 | 11.3 | 24.1 | 0.00 | 0.00 | 0.00 | 49 | 1017.6 |
| 20260502161804 | 6 | 301 | 4.8 | 16.1 | 0.00 | 0.00 | 0.00 | 49 | 1017.6 |
| 20260502161643 | 6 | 281 | 8.0 | 16.1 | 0.00 | 0.00 | 0.00 | 48 | 1017.6 |
| 20260502161509 | 6 | 344 | 11.3 | 20.9 | 0.00 | 0.00 | 0.00 | 48 | 1017.6 |
| 20260502161347 | 6 | 306 | 8.0 | 20.9 | 0.00 | 0.00 | 0.00 | 48 | 1017.6 |
| 20260502161229 | 6 | 355 | 8.0 | 20.9 | 0.00 | 0.00 | 0.00 | 49 | 1017.7 |
| 20260502161107 | 6 | 342 | 9.7 | 20.9 | 0.00 | 0.00 | 0.00 | 48 | 1017.7 |
| 20260502160948 | 6 | 350 | 9.7 | 20.9 | 0.00 | 0.00 | 0.00 | 47 | 1017.7 |
| 20260502160830 | 6 | 355 | 11.3 | 20.9 | 0.00 | 0.00 | 0.00 | 47 | 1017.7 |
| 20260502160708 | 6 | 305 | 11.3 | 20.9 | 0.00 | 0.00 | 0.00 | 49 | 1017.7 |
| 20260502160547 | 6 | 292 | 6.4 | 12.9 | 0.00 | 0.00 | 0.00 | 50 | 1017.7 |
| 20260502160427 | 6 | 351 | 6.4 | 12.9 | 0.00 | 0.00 | 0.00 | 50 | 1017.7 |
| 20260502160308 | 6 | 360 | 6.4 | 12.9 | 0.00 | 0.00 | 0.00 | 50 | 1017.7 |
| 20260502160146 | 6 | 312 | 4.8 | 12.9 | 0.00 | 0.00 | 0.00 | 49 | 1017.7 |
| 20260502152332 | 6 | 317 | 11.3 | 20.9 | 0.00 | 0.00 | 0.00 | 52 | 1017.7 |
| 20260502152212 | 5 | 349 | 8.0 | 20.9 | 0.00 | 0.00 | 0.00 | 52 | 1017.7 |
| 20260502151914 | 5 | 344 | 11.3 | 20.9 | 0.00 | 0.00 | 0.00 | 51 | 1017.7 |
| 20260502151752 | 6 | 22 | 11.3 | 20.9 | 0.00 | 0.00 | 0.00 | 51 | 1017.7 |
| 20260502151629 | 6 | 335 | 9.7 | 17.7 | 0.00 | 0.00 | 0.00 | 52 | 1017.7 |
| 20260502151511 | 5 | 355 | 8.0 | 17.7 | 0.00 | 0.00 | 0.00 | 53 | 1017.6 |
| 20260502151328 | 5 | 66 | 8.0 | 17.7 | 0.00 | 0.00 | 0.00 | 52 | 1017.6 |
| 20260502151206 | 5 | 301 | 6.4 | 20.9 | 0.00 | 0.00 | 0.00 | 52 | 1017.6 |
| 20260502151024 | 5 | 341 | 6.4 | 20.9 | 0.00 | 0.00 | 0.00 | 53 | 1017.7 |
| 20260502150827 | 5 | 288 | 9.7 | 20.9 | 0.00 | 0.00 | 0.00 | 53 | 1017.7 |
| 20260502150703 | 5 | 334 | 11.3 | 20.9 | 0.00 | 0.00 | 0.00 | 52 | 1017.7 |
| 20260502150540 | 5 | 312 | 12.9 | 20.9 | 0.00 | 0.00 | 0.00 | 52 | 1017.7 |
| 20260502150359 | 5 | 303 | 11.3 | 20.9 | 0.00 | 0.00 | 0.00 | 52 | 1017.7 |
| 20260502150242 | 5 | 320 | 8.0 | 19.3 | 0.00 | 0.00 | 0.00 | 53 | 1017.7 |
| 20260502130736 | 3 | 297 | 6.4 | 17.7 | 0.00 | 0.00 | 0.00 | 67 | 1017.9 |
| 20260502130553 | 3 | 311 | 6.4 | 17.7 | 0.00 | 0.00 | 0.00 | 67 | 1017.9 |
| 20260502130435 | 3 | 321 | 11.3 | 17.7 | 0.00 | 0.00 | 0.00 | 68 | 1017.9 |
| 20260502130252 | 3 | 320 | 8.0 | 17.7 | 0.00 | 0.00 | 0.00 | 69 | 1017.9 |
| 20260502130133 | 3 | 334 | 6.4 | 12.9 | 0.00 | 0.00 | 0.00 | 70 | 1017.9 |
| 20260502123758 | 3 | 327 | 11.3 | 16.1 | 0.00 | 0.00 | 0.00 | 70 | 1017.7 |
| 20260502123636 | 3 | 331 | 9.7 | 16.1 | 0.00 | 0.00 | 0.00 | 71 | 1017.8 |
| 20260502123500 | 3 | 344 | 9.7 | 19.3 | 0.00 | 0.00 | 0.00 | 71 | 1017.7 |
| 20260502123320 | 3 | 28 | 6.4 | 19.3 | 0.00 | 0.00 | 0.00 | 71 | 1017.8 |
| 20260502123200 | 3 | 5 | 8.0 | 19.3 | 0.00 | 0.00 | 0.00 | 71 | 1017.7 |
| 20260502123037 | 2 | 329 | 9.7 | 19.3 | 0.00 | 0.00 | 0.00 | 71 | 1017.7 |
| 20260502122916 | 2 | 9 | 11.3 | 19.3 | 0.00 | 0.00 | 0.00 | 71 | 1017.7 |
| 20260502122737 | 2 | 340 | 11.3 | 19.3 | 0.00 | 0.00 | 0.00 | 71 | 1017.7 |
| 20260502122618 | 2 | 322 | 9.7 | 19.3 | 0.00 | 0.00 | 0.00 | 71 | 1017.7 |
| 20260502122439 | 2 | 346 | 9.7 | 19.3 | 0.00 | 0.00 | 0.00 | 72 | 1017.7 |
| 20260502122321 | 2 | 17 | 11.3 | 17.7 | 0.00 | 0.00 | 0.00 | 72 | 1017.7 |
| 20260502122204 | 2 | 338 | 11.3 | 17.7 | 0.00 | 0.00 | 0.00 | 72 | 1017.7 |
| 20260502122041 | 2 | 346 | 8.0 | 20.9 | 0.00 | 0.00 | 0.00 | 72 | 1017.7 |
| 20260502121859 | 2 | 360 | 8.0 | 20.9 | 0.00 | 0.00 | 0.00 | 72 | 1017.7 |
| 20260502121739 | 2 | 360 | 8.0 | 20.9 | 0.00 | 0.00 | 0.00 | 72 | 1017.7 |
| 20260502121600 | 2 | 349 | 11.3 | 20.9 | 0.00 | 0.00 | 0.00 | 72 | 1017.6 |
| 20260502121415 | 2 | 340 | 11.3 | 20.9 | 0.00 | 0.00 | 0.00 | 73 | 1017.7 |
| 20260502121236 | 2 | 349 | 9.7 | 16.1 | 0.00 | 0.00 | 0.00 | 73 | 1017.6 |
| 20260502121054 | 2 | 318 | 6.4 | 14.5 | 0.00 | 0.00 | 0.00 | 73 | 1017.7 |
| 20260502120931 | 2 | 342 | 6.4 | 16.1 | 0.00 | 0.00 | 0.00 | 73 | 1017.7 |
| 20260502120752 | 2 | 16 | 8.0 | 16.1 | 0.00 | 0.00 | 0.00 | 73 | 1017.6 |
| 20260502120628 | 2 | 360 | 8.0 | 16.1 | 0.00 | 0.00 | 0.00 | 73 | 1017.6 |
| 20260502120444 | 2 | 355 | 8.0 | 16.1 | 0.00 | 0.00 | 0.00 | 73 | 1017.6 |
| 20260502120325 | 2 | 334 | 8.0 | 16.1 | 0.00 | 0.00 | 0.00 | 73 | 1017.6 |
| 20260502120206 | 2 | 355 | 11.3 | 16.1 | 0.00 | 0.00 | 0.00 | 74 | 1017.6 |
| 20260502115902 | 2 | 321 | 4.8 | 14.5 | 0.00 | 0.00 | 0.00 | 74 | 1017.6 |
| 20260502115740 | 2 | 326 | 4.8 | 14.5 | 0.00 | 0.00 | 0.00 | 74 | 1017.6 |
| 20260502115602 | 2 | 333 | 8.0 | 14.5 | 0.00 | 0.00 | 0.00 | 74 | 1017.6 |
| 20260502115439 | 2 | 348 | 6.4 | 14.5 | 0.00 | 0.00 | 0.00 | 75 | 1017.6 |
| 20260502115320 | 2 | 306 | 8.0 | 14.5 | 0.00 | 0.00 | 0.00 | 75 | 1017.6 |
| 20260502115157 | 2 | 332 | 6.4 | 14.5 | 0.00 | 0.00 | 0.00 | 75 | 1017.6 |
| 20260502115034 | 2 | 355 | 8.0 | 14.5 | 0.00 | 0.00 | 0.00 | 75 | 1017.6 |
| 20260502114916 | 2 | 323 | 8.0 | 14.5 | 0.00 | 0.00 | 0.00 | 75 | 1017.6 |
| 20260502114751 | 2 | 20 | 6.4 | 14.5 | 0.00 | 0.00 | 0.00 | 75 | 1017.6 |
| 20260502114632 | 2 | 355 | 6.4 | 12.9 | 0.00 | 0.00 | 0.00 | 75 | 1017.6 |
| 20260502114509 | 2 | 5 | 6.4 | 12.9 | 0.00 | 0.00 | 0.00 | 75 | 1017.6 |
| 20260502114351 | 2 | 330 | 6.4 | 12.9 | 0.00 | 0.00 | 0.00 | 75 | 1017.6 |
| 20260502114230 | 1 | 355 | 9.7 | 12.9 | 0.00 | 0.00 | 0.00 | 76 | 1017.6 |
| 20260502114106 | 1 | 344 | 6.4 | 12.9 | 0.00 | 0.00 | 0.00 | 76 | 1017.5 |
| 20260502113944 | 1 | 310 | 6.4 | 12.9 | 0.00 | 0.00 | 0.00 | 76 | 1017.5 |
| 20260502113825 | 1 | 286 | 6.4 | 12.9 | 0.00 | 0.00 | 0.00 | 76 | 1017.5 |
| 20260502113702 | 1 | 337 | 3.2 | 12.9 | 0.00 | 0.00 | 0.00 | 76 | 1017.5 |
| 20260502113539 | 1 | 327 | 4.8 | 11.3 | 0.00 | 0.00 | 0.00 | 76 | 1017.5 |
| 20260502113418 | 1 | 5 | 4.8 | 11.3 | 0.00 | 0.00 | 0.00 | 76 | 1017.5 |
| 20260502113256 | 1 | 339 | 3.2 | 8.0 | 0.00 | 0.00 | 0.00 | 76 | 1017.4 |
| 20260502113116 | 1 | 324 | 3.2 | 8.0 | 0.00 | 0.00 | 0.00 | 76 | 1017.4 |
| 20260502112956 | 1 | 337 | 3.2 | 8.0 | 0.00 | 0.00 | 0.00 | 76 | 1017.4 |
| 20260502112833 | 1 | 351 | 3.2 | 8.0 | 0.00 | 0.00 | 0.00 | 76 | 1017.4 |
| 20260502112714 | 1 | 336 | 1.6 | 8.0 | 0.00 | 0.00 | 0.00 | 76 | 1017.4 |
| 20260502112533 | 1 | 338 | 3.2 | 8.0 | 0.00 | 0.00 | 0.00 | 76 | 1017.4 |
| 20260502112412 | 1 | 337 | 1.6 | 6.4 | 0.00 | 0.00 | 0.00 | 76 | 1017.4 |
| 20260502112254 | 1 | 328 | 3.2 | 6.4 | 0.00 | 0.00 | 0.00 | 76 | 1017.4 |
| 20260502112134 | 1 | 329 | 3.2 | 4.8 | 0.00 | 0.00 | 0.00 | 76 | 1017.4 |
| 20260502111955 | 1 | 337 | 1.6 | 4.8 | 0.00 | 0.00 | 0.00 | 76 | 1017.4 |
| 20260502111812 | 1 | 331 | 0.0 | 4.8 | 0.00 | 0.00 | 0.00 | 76 | 1017.3 |
| 20260502111628 | 1 | 331 | 1.6 | 4.8 | 0.00 | 0.00 | 0.00 | 76 | 1017.4 |
| 20260502111507 | 1 | 323 | 1.6 | 4.8 | 0.00 | 0.00 | 0.00 | 77 | 1017.4 |
| 20260502111344 | 1 | 338 | 0.0 | 1.6 | 0.00 | 0.00 | 0.00 | 77 | 1017.4 |
| 20260502111226 | 1 | 339 | 0.0 | 0.0 | 0.00 | 0.00 | 0.00 | 77 | 1017.4 |
| 20260502111104 | 1 | 339 | 0.0 | 0.0 | 0.00 | 0.00 | 0.00 | 77 | 1017.4 |
| 20260502110941 | 1 | 340 | 0.0 | 0.0 | 0.00 | 0.00 | 0.00 | 77 | 1017.4 |
| 20260502110800 | 1 | 340 | 0.0 | 0.0 | 0.00 | 0.00 | 0.00 | 77 | 1017.3 |
| 20260502110603 | 1 | 336 | 0.0 | 0.0 | 0.00 | 0.00 | 0.00 | 77 | 1017.3 |
| 20260502110441 | 1 | 336 | 0.0 | 0.0 | 0.00 | 0.00 | 0.00 | 77 | 1017.3 |
| 20260502110320 | 1 | 336 | 0.0 | 0.0 | 0.00 | 0.00 | 0.00 | 77 | 1017.3 |
| 20260502110158 | 1 | 336 | 0.0 | 0.0 | 0.00 | 0.00 | 0.00 | 77 | 1017.3 |
| 20260502110024 | 1 | 336 | 0.0 | 0.0 | 0.00 | 0.00 | 0.00 | 77 | 1017.3 |
| 20260502105901 | 1 | 336 | 0.0 | 0.0 | 0.00 | 0.00 | 0.00 | 76 | 1017.3 |
| 20260502105738 | 1 | 336 | 0.0 | 0.0 | 0.00 | 0.00 | 0.00 | 76 | 1017.3 |
| 20260502105616 | 1 | 336 | 0.0 | 0.0 | 0.00 | 0.00 | 0.00 | 76 | 1017.3 |
| 20260502105441 | 1 | 336 | 0.0 | 0.0 | 0.00 | 0.00 | 0.00 | 76 | 1017.2 |
| 20260502105321 | 1 | 336 | 0.0 | 0.0 | 0.00 | 0.00 | 0.00 | 76 | 1017.3 |
| 20260502105159 | 1 | 336 | 0.0 | 0.0 | 0.00 | 0.00 | 0.00 | 76 | 1017.2 |
| 20260502105036 | 1 | 336 | 0.0 | 0.0 | 0.00 | 0.00 | 0.00 | 76 | 1017.3 |
| 20260502104913 | 1 | 336 | 0.0 | 0.0 | 0.00 | 0.00 | 0.00 | 76 | 1017.2 |
| 20260502104731 | 1 | 336 | 0.0 | 0.0 | 0.00 | 0.00 | 0.00 | 76 | 1017.2 |
| 20260502104608 | 1 | 336 | 0.0 | 0.0 | 0.00 | 0.00 | 0.00 | 75 | 1017.2 |
| 20260502104446 | 1 | 336 | 0.0 | 0.0 | 0.00 | 0.00 | 0.00 | 75 | 1017.2 |
| 20260502104308 | 1 | 336 | 0.0 | 0.0 | 0.00 | 0.00 | 0.00 | 75 | 1017.2 |
| 20260502104146 | 1 | 336 | 0.0 | 0.0 | 0.00 | 0.00 | 0.00 | 75 | 1017.2 |
| 20260502104028 | 1 | 336 | 0.0 | 0.0 | 0.00 | 0.00 | 0.00 | 75 | 1017.2 |
| 20260502103907 | 1 | 336 | 0.0 | 0.0 | 0.00 | 0.00 | 0.00 | 75 | 1017.2 |
| 20260502103744 | 1 | 336 | 0.0 | 0.0 | 0.00 | 0.00 | 0.00 | 75 | 1017.2 |
| 20260502103625 | 1 | 336 | 0.0 | 0.0 | 0.00 | 0.00 | 0.00 | 75 | 1017.2 |
| 20260502103503 | 1 | 336 | 0.0 | 0.0 | 0.00 | 0.00 | 0.00 | 75 | 1017.2 |
| 20260502103339 | 1 | 336 | 0.0 | 0.0 | 0.00 | 0.00 | 0.00 | 75 | 1017.2 |
| 20260502103217 | 1 | 336 | 0.0 | 0.0 | 0.00 | 0.00 | 0.00 | 75 | 1017.2 |
| 20260502103041 | 1 | 336 | 0.0 | 0.0 | 0.00 | 0.00 | 0.00 | 74 | 1017.2 |
| 20260502102919 | 1 | 336 | 0.0 | 0.0 | 0.00 | 0.00 | 0.00 | 74 | 1017.2 |
| 20260502102757 | 1 | 336 | 0.0 | 0.0 | 0.00 | 0.00 | 0.00 | 74 | 1017.2 |
| 20260502102637 | 1 | 336 | 0.0 | 0.0 | 0.00 | 0.00 | 0.00 | 74 | 1017.2 |
| 20260502102518 | 1 | 336 | 0.0 | 0.0 | 0.00 | 0.00 | 0.00 | 74 | 1017.2 |
| 20260502102335 | 1 | 336 | 0.0 | 0.0 | 0.00 | 0.00 | 0.00 | 74 | 1017.2 |
| 20260502102212 | 1 | 336 | 0.0 | 0.0 | 0.00 | 0.00 | 0.00 | 74 | 1017.1 |
| 20260502102051 | 1 | 336 | 0.0 | 0.0 | 0.00 | 0.00 | 0.00 | 74 | 1017.2 |
| 20260502101933 | 1 | 336 | 0.0 | 0.0 | 0.00 | 0.00 | 0.00 | 74 | 1017.2 |
| 20260502101750 | 1 | 336 | 0.0 | 0.0 | 0.00 | 0.00 | 0.00 | 73 | 1017.1 |
| 20260502101630 | 1 | 336 | 0.0 | 0.0 | 0.00 | 0.00 | 0.00 | 73 | 1017.1 |
| 20260502101446 | 1 | 336 | 0.0 | 0.0 | 0.00 | 0.00 | 0.00 | 73 | 1017.1 |
| 20260502101325 | 1 | 336 | 0.0 | 0.0 | 0.00 | 0.00 | 0.00 | 73 | 1017.1 |
| 20260502101146 | 1 | 336 | 0.0 | 0.0 | 0.00 | 0.00 | 0.00 | 73 | 1017.1 |
| 20260502101025 | 1 | 336 | 0.0 | 0.0 | 0.00 | 0.00 | 0.00 | 73 | 1017.0 |
| 20260502100842 | 1 | 336 | 0.0 | 0.0 | 0.00 | 0.00 | 0.00 | 73 | 1017.0 |
| 20260502100658 | 1 | 336 | 0.0 | 0.0 | 0.00 | 0.00 | 0.00 | 73 | 1017.0 |
| 20260502100524 | 1 | 336 | 0.0 | 0.0 | 0.00 | 0.00 | 0.00 | 73 | 1017.0 |
| 20260502100402 | 1 | 336 | 0.0 | 0.0 | 0.00 | 0.00 | 0.00 | 73 | 1017.0 |
| 20260502100239 | 1 | 336 | 0.0 | 0.0 | 0.00 | 0.00 | 0.00 | 73 | 1017.0 |
| 20260502091449 | 2 | 360 | 0.0 | 4.8 | 0.00 | 0.00 | 0.00 | 71 | 1016.8 |
| 20260502091329 | 2 | 333 | 0.0 | 4.8 | 0.00 | 0.00 | 0.00 | 71 | 1016.7 |
| 20260502091206 | 2 | 336 | 0.0 | 8.0 | 0.00 | 0.00 | 0.00 | 71 | 1016.7 |
| 20260502091046 | 2 | 337 | 0.0 | 8.0 | 0.00 | 0.00 | 0.00 | 71 | 1016.7 |
| 20260502090928 | 2 | 339 | 0.0 | 8.0 | 0.00 | 0.00 | 0.00 | 71 | 1016.7 |
| 20260502090806 | 2 | 333 | 0.0 | 8.0 | 0.00 | 0.00 | 0.00 | 71 | 1016.7 |
| 20260502090644 | 2 | 336 | 0.0 | 8.0 | 0.00 | 0.00 | 0.00 | 71 | 1016.7 |
| 20260502090522 | 2 | 344 | 1.6 | 8.0 | 0.00 | 0.00 | 0.00 | 70 | 1016.7 |
| 20260502090404 | 2 | 345 | 3.2 | 8.0 | 0.00 | 0.00 | 0.00 | 70 | 1016.7 |
| 20260502090242 | 2 | 327 | 1.6 | 6.4 | 0.00 | 0.00 | 0.00 | 70 | 1016.7 |
| 20260502090121 | 2 | 321 | 1.6 | 6.4 | 0.00 | 0.00 | 0.00 | 70 | 1016.7 |
| 20260502071433 | 3 | 306 | 1.6 | 8.0 | 0.00 | 0.00 | 0.00 | 66 | 1016.3 |
| 20260502071309 | 3 | 319 | 3.2 | 8.0 | 0.00 | 0.00 | 0.00 | 66 | 1016.3 |
| 20260502071150 | 3 | 298 | 3.2 | 8.0 | 0.00 | 0.00 | 0.00 | 66 | 1016.3 |
| 20260502071028 | 3 | 296 | 1.6 | 8.0 | 0.00 | 0.00 | 0.00 | 66 | 1016.3 |
| 20260502070909 | 3 | 324 | 0.0 | 9.7 | 0.00 | 0.00 | 0.00 | 66 | 1016.3 |
| 20260502070748 | 3 | 329 | 0.0 | 9.7 | 0.00 | 0.00 | 0.00 | 66 | 1016.3 |
| 20260502070627 | 3 | 330 | 1.6 | 9.7 | 0.00 | 0.00 | 0.00 | 65 | 1016.3 |
| 20260502070445 | 3 | 323 | 1.6 | 9.7 | 0.00 | 0.00 | 0.00 | 65 | 1016.3 |
| 20260502070326 | 3 | 342 | 3.2 | 9.7 | 0.00 | 0.00 | 0.00 | 65 | 1016.3 |
| 20260502070207 | 3 | 344 | 4.8 | 9.7 | 0.00 | 0.00 | 0.00 | 65 | 1016.3 |
| 20260502070047 | 3 | 315 | 4.8 | 9.7 | 0.00 | 0.00 | 0.00 | 65 | 1016.3 |
| 20260502065925 | 3 | 325 | 3.2 | 9.7 | 0.00 | 0.00 | 0.00 | 65 | 1016.3 |
| 20260502065741 | 3 | 327 | 3.2 | 9.7 | 0.00 | 0.00 | 0.00 | 65 | 1016.3 |
| 20260502065623 | 3 | 338 | 1.6 | 11.3 | 0.00 | 0.00 | 0.00 | 66 | 1016.3 |
| 20260502065500 | 3 | 333 | 0.0 | 11.3 | 0.00 | 0.00 | 0.00 | 66 | 1016.3 |
| 20260502065316 | 3 | 327 | 1.6 | 11.3 | 0.00 | 0.00 | 0.00 | 65 | 1016.3 |
| 20260502065153 | 3 | 342 | 0.0 | 11.3 | 0.00 | 0.00 | 0.00 | 65 | 1016.3 |
| 20260502065035 | 3 | 320 | 3.2 | 11.3 | 0.00 | 0.00 | 0.00 | 65 | 1016.3 |
| 20260502064913 | 3 | 325 | 6.4 | 11.3 | 0.00 | 0.00 | 0.00 | 65 | 1016.4 |
| 20260502064751 | 3 | 312 | 3.2 | 9.7 | 0.00 | 0.00 | 0.00 | 65 | 1016.4 |
| 20260502064628 | 3 | 312 | 3.2 | 8.0 | 0.00 | 0.00 | 0.00 | 65 | 1016.4 |
| 20260502064506 | 3 | 304 | 1.6 | 8.0 | 0.00 | 0.00 | 0.00 | 65 | 1016.4 |
| 20260502064347 | 3 | 336 | 0.0 | 8.0 | 0.00 | 0.00 | 0.00 | 65 | 1016.4 |
| 20260502064203 | 3 | 327 | 1.6 | 8.0 | 0.00 | 0.00 | 0.00 | 65 | 1016.4 |
| 20260502064040 | 4 | 340 | 1.6 | 8.0 | 0.00 | 0.00 | 0.00 | 66 | 1016.5 |
| 20260502063918 | 4 | 333 | 0.0 | 4.8 | 0.00 | 0.00 | 0.00 | 65 | 1016.4 |
| 20260502063740 | 4 | 336 | 0.0 | 6.4 | 0.00 | 0.00 | 0.00 | 65 | 1016.4 |
| 20260502063622 | 4 | 336 | 0.0 | 6.4 | 0.00 | 0.00 | 0.00 | 65 | 1016.4 |
| 20260502063459 | 4 | 336 | 0.0 | 6.4 | 0.00 | 0.00 | 0.00 | 64 | 1016.5 |
| 20260502063337 | 4 | 336 | 1.6 | 6.4 | 0.00 | 0.00 | 0.00 | 64 | 1016.5 |
| 20260502063201 | 4 | 335 | 1.6 | 6.4 | 0.00 | 0.00 | 0.00 | 63 | 1016.4 |
| 20260502063038 | 4 | 355 | 3.2 | 6.4 | 0.00 | 0.00 | 0.00 | 63 | 1016.4 |
| 20260502062918 | 4 | 348 | 1.6 | 6.4 | 0.00 | 0.00 | 0.00 | 63 | 1016.5 |
| 20260502062755 | 4 | 324 | 1.6 | 6.4 | 0.00 | 0.00 | 0.00 | 63 | 1016.5 |
| 20260502062619 | 4 | 330 | 0.0 | 6.4 | 0.00 | 0.00 | 0.00 | 63 | 1016.5 |
| 20260502062457 | 4 | 337 | 0.0 | 6.4 | 0.00 | 0.00 | 0.00 | 63 | 1016.5 |
| 20260502062336 | 4 | 339 | 1.6 | 6.4 | 0.00 | 0.00 | 0.00 | 63 | 1016.5 |
| 20260502062214 | 4 | 345 | 3.2 | 6.4 | 0.00 | 0.00 | 0.00 | 62 | 1016.5 |
| 20260502062054 | 4 | 341 | 4.8 | 9.7 | 0.00 | 0.00 | 0.00 | 62 | 1016.5 |
| 20260502061933 | 4 | 350 | 3.2 | 9.7 | 0.00 | 0.00 | 0.00 | 62 | 1016.5 |
| 20260502061812 | 4 | 333 | 3.2 | 9.7 | 0.00 | 0.00 | 0.00 | 62 | 1016.5 |
| 20260502061650 | 4 | 360 | 3.2 | 9.7 | 0.00 | 0.00 | 0.00 | 62 | 1016.5 |
| 20260502061528 | 4 | 317 | 1.6 | 9.7 | 0.00 | 0.00 | 0.00 | 62 | 1016.5 |
| 20260502061409 | 4 | 344 | 3.2 | 9.7 | 0.00 | 0.00 | 0.00 | 62 | 1016.5 |
| 20260502061227 | 4 | 331 | 4.8 | 9.7 | 0.00 | 0.00 | 0.00 | 62 | 1016.5 |
| 20260502061107 | 4 | 348 | 4.8 | 9.7 | 0.00 | 0.00 | 0.00 | 62 | 1016.6 |
| 20260502060947 | 4 | 314 | 4.8 | 9.7 | 0.00 | 0.00 | 0.00 | 62 | 1016.5 |
| 20260502060829 | 4 | 329 | 4.8 | 9.7 | 0.00 | 0.00 | 0.00 | 62 | 1016.6 |
| 20260502060708 | 4 | 333 | 4.8 | 8.0 | 0.00 | 0.00 | 0.00 | 62 | 1016.6 |
| 20260502060548 | 4 | 335 | 3.2 | 12.9 | 0.00 | 0.00 | 0.00 | 62 | 1016.7 |
| 20260502060426 | 4 | 308 | 3.2 | 12.9 | 0.00 | 0.00 | 0.00 | 62 | 1016.6 |
| 20260502060309 | 4 | 329 | 1.6 | 12.9 | 0.00 | 0.00 | 0.00 | 62 | 1016.7 |
| 20260502060115 | 4 | 334 | 1.6 | 12.9 | 0.00 | 0.00 | 0.00 | 62 | 1016.6 |
| 20260502055959 | 4 | 302 | 1.6 | 12.9 | 0.00 | 0.00 | 0.00 | 62 | 1016.6 |
| 20260502055840 | 4 | 347 | 4.8 | 12.9 | 0.00 | 0.00 | 0.00 | 61 | 1016.7 |
| 20260502055722 | 4 | 323 | 6.4 | 12.9 | 0.00 | 0.00 | 0.00 | 61 | 1016.6 |
| 20260502055624 | 4 | 335 | 4.8 | 12.9 | 0.00 | 0.00 | 0.00 | 61 | 1016.6 |
| 20260502055530 | 4 | 343 | 3.2 | 12.9 | 0.00 | 0.00 | 0.00 | 61 | 1016.6 |
| 20260502055433 | 4 | 360 | 6.4 | 12.9 | 0.00 | 0.00 | 0.00 | 61 | 1016.6 |
| 20260502055335 | 4 | 331 | 6.4 | 12.9 | 0.00 | 0.00 | 0.00 | 61 | 1016.6 |
| 20260502055238 | 4 | 314 | 4.8 | 11.3 | 0.00 | 0.00 | 0.00 | 62 | 1016.6 |
| 20260502055200 | 4 | 320 | 3.2 | 11.3 | 0.00 | 0.00 | 0.00 | 62 | 1016.6 |
| 20260502055040 | 4 | 323 | 1.6 | 9.7 | 0.00 | 0.00 | 0.00 | 62 | 1016.6 |
| 20260502054942 | 4 | 5 | 3.2 | 9.7 | 0.00 | 0.00 | 0.00 | 62 | 1016.7 |
| 20260502054827 | 4 | 301 | 3.2 | 9.7 | 0.00 | 0.00 | 0.00 | 62 | 1016.7 |
| 20260502054728 | 4 | 350 | 4.8 | 9.7 | 0.00 | 0.00 | 0.00 | 61 | 1016.6 |
| 20260502054631 | 4 | 331 | 4.8 | 9.7 | 0.00 | 0.00 | 0.00 | 61 | 1016.6 |
| 20260502054531 | 4 | 322 | 3.2 | 9.7 | 0.00 | 0.00 | 0.00 | 62 | 1016.6 |
| 20260502054433 | 4 | 346 | 3.2 | 9.7 | 0.00 | 0.00 | 0.00 | 62 | 1016.6 |
| 20260502054334 | 4 | 333 | 3.2 | 9.7 | 0.00 | 0.00 | 0.00 | 62 | 1016.6 |
| 20260502054255 | 4 | 302 | 3.2 | 9.7 | 0.00 | 0.00 | 0.00 | 61 | 1016.6 |
| 20260502054156 | 4 | 331 | 4.8 | 9.7 | 0.00 | 0.00 | 0.00 | 61 | 1016.6 |
| 20260502054022 | 4 | 330 | 3.2 | 9.7 | 0.00 | 0.00 | 0.00 | 61 | 1016.7 |
| 20260502053924 | 4 | 9 | 4.8 | 9.7 | 0.00 | 0.00 | 0.00 | 61 | 1016.7 |
| 20260502053825 | 4 | 309 | 4.8 | 9.7 | 0.00 | 0.00 | 0.00 | 61 | 1016.7 |
| 20260502053727 | 4 | 344 | 4.8 | 9.7 | 0.00 | 0.00 | 0.00 | 61 | 1016.7 |
| 20260502053649 | 4 | 323 | 4.8 | 9.7 | 0.00 | 0.00 | 0.00 | 61 | 1016.7 |
| 20260502053529 | 4 | 331 | 3.2 | 9.7 | 0.00 | 0.00 | 0.00 | 62 | 1016.7 |
| 20260502053431 | 4 | 319 | 3.2 | 11.3 | 0.00 | 0.00 | 0.00 | 62 | 1016.7 |
| 20260502053357 | 4 | 329 | 3.2 | 11.3 | 0.00 | 0.00 | 0.00 | 62 | 1016.7 |
| 20260502053239 | 4 | 317 | 3.2 | 11.3 | 0.00 | 0.00 | 0.00 | 62 | 1016.7 |
| 20260502053201 | 4 | 336 | 3.2 | 11.3 | 0.00 | 0.00 | 0.00 | 62 | 1016.7 |
| 20260502053022 | 4 | 351 | 4.8 | 11.3 | 0.00 | 0.00 | 0.00 | 62 | 1016.7 |
| 20260502052924 | 4 | 317 | 4.8 | 11.3 | 0.00 | 0.00 | 0.00 | 61 | 1016.7 |
| 20260502052846 | 4 | 298 | 4.8 | 11.3 | 0.00 | 0.00 | 0.00 | 62 | 1016.7 |
| 20260502052726 | 4 | 311 | 4.8 | 11.3 | 0.00 | 0.00 | 0.00 | 62 | 1016.7 |
| 20260502052633 | 4 | 338 | 4.8 | 11.3 | 0.00 | 0.00 | 0.00 | 62 | 1016.7 |
| 20260502052555 | 4 | 303 | 4.8 | 11.3 | 0.00 | 0.00 | 0.00 | 62 | 1016.7 |
| 20260502052456 | 4 | 313 | 3.2 | 9.7 | 0.00 | 0.00 | 0.00 | 63 | 1016.7 |
| 20260502052336 | 4 | 287 | 3.2 | 9.7 | 0.00 | 0.00 | 0.00 | 63 | 1016.7 |
| 20260502052237 | 4 | 336 | 3.2 | 9.7 | 0.00 | 0.00 | 0.00 | 63 | 1016.7 |
| 20260502052138 | 4 | 319 | 1.6 | 9.7 | 0.00 | 0.00 | 0.00 | 62 | 1016.7 |
| 20260502052040 | 4 | 319 | 3.2 | 9.7 | 0.00 | 0.00 | 0.00 | 62 | 1016.7 |
| 20260502051926 | 4 | 336 | 3.2 | 9.7 | 0.00 | 0.00 | 0.00 | 62 | 1016.7 |
| 20260502051828 | 4 | 335 | 1.6 | 9.7 | 0.00 | 0.00 | 0.00 | 62 | 1016.7 |
| 20260502051731 | 4 | 296 | 1.6 | 9.7 | 0.00 | 0.00 | 0.00 | 62 | 1016.7 |
| 20260502051653 | 4 | 323 | 1.6 | 9.7 | 0.00 | 0.00 | 0.00 | 62 | 1016.7 |
| 20260502051554 | 4 | 319 | 3.2 | 9.7 | 0.00 | 0.00 | 0.00 | 62 | 1016.7 |
| 20260502051455 | 4 | 324 | 1.6 | 9.7 | 0.00 | 0.00 | 0.00 | 62 | 1016.7 |
| 20260502051336 | 4 | 332 | 1.6 | 9.7 | 0.00 | 0.00 | 0.00 | 62 | 1016.7 |
| 20260502051239 | 4 | 332 | 3.2 | 9.7 | 0.00 | 0.00 | 0.00 | 61 | 1016.7 |
| 20260502051125 | 4 | 335 | 4.8 | 9.7 | 0.00 | 0.00 | 0.00 | 61 | 1016.7 |
| 20260502051027 | 4 | 327 | 4.8 | 12.9 | 0.00 | 0.00 | 0.00 | 61 | 1016.7 |
| 20260502050928 | 4 | 304 | 3.2 | 12.9 | 0.00 | 0.00 | 0.00 | 61 | 1016.7 |
| 20260502050830 | 4 | 349 | 3.2 | 12.9 | 0.00 | 0.00 | 0.00 | 61 | 1016.6 |
| 20260502050732 | 4 | 331 | 6.4 | 12.9 | 0.00 | 0.00 | 0.00 | 61 | 1016.6 |
| 20260502050634 | 4 | 337 | 6.4 | 12.9 | 0.00 | 0.00 | 0.00 | 61 | 1016.6 |
| 20260502050539 | 4 | 355 | 4.8 | 12.9 | 0.00 | 0.00 | 0.00 | 62 | 1016.6 |
| 20260502050421 | 4 | 284 | 3.2 | 12.9 | 0.00 | 0.00 | 0.00 | 62 | 1016.7 |
| 20260502050324 | 4 | 335 | 6.4 | 12.9 | 0.00 | 0.00 | 0.00 | 62 | 1016.6 |
| 20260502050225 | 4 | 355 | 8.0 | 12.9 | 0.00 | 0.00 | 0.00 | 62 | 1016.6 |
| 20260502050128 | 4 | 344 | 4.8 | 12.9 | 0.00 | 0.00 | 0.00 | 62 | 1016.7 |
| 20260502050030 | 4 | 333 | 6.4 | 12.9 | 0.00 | 0.00 | 0.00 | 62 | 1016.6 |
| 20260502045931 | 4 | 346 | 6.4 | 12.9 | 0.00 | 0.00 | 0.00 | 62 | 1016.6 |
| 20260502045837 | 4 | 355 | 3.2 | 8.0 | 0.00 | 0.00 | 0.00 | 63 | 1016.6 |
| 20260502045739 | 4 | 324 | 1.6 | 6.4 | 0.00 | 0.00 | 0.00 | 63 | 1016.6 |
| 20260502045621 | 4 | 336 | 3.2 | 6.4 | 0.00 | 0.00 | 0.00 | 63 | 1016.6 |
| 20260502045523 | 4 | 327 | 4.8 | 11.3 | 0.00 | 0.00 | 0.00 | 63 | 1016.6 |
| 20260502045425 | 4 | 315 | 3.2 | 11.3 | 0.00 | 0.00 | 0.00 | 63 | 1016.6 |
| 20260502045327 | 4 | 338 | 1.6 | 16.1 | 0.00 | 0.00 | 0.00 | 63 | 1016.6 |
| 20260502045254 | 4 | 315 | 3.2 | 16.1 | 0.00 | 0.00 | 0.00 | 63 | 1016.5 |
| 20260502045134 | 5 | 323 | 3.2 | 16.1 | 0.00 | 0.00 | 0.00 | 63 | 1016.5 |
| 20260502045056 | 5 | 334 | 1.6 | 16.1 | 0.00 | 0.00 | 0.00 | 63 | 1016.6 |
| 20260502044937 | 5 | 355 | 3.2 | 16.1 | 0.00 | 0.00 | 0.00 | 62 | 1016.6 |
| 20260502044838 | 5 | 334 | 4.8 | 16.1 | 0.00 | 0.00 | 0.00 | 62 | 1016.5 |
| 20260502044740 | 5 | 11 | 6.4 | 16.1 | 0.00 | 0.00 | 0.00 | 62 | 1016.5 |
| 20260502044643 | 5 | 340 | 8.0 | 16.1 | 0.00 | 0.00 | 0.00 | 62 | 1016.5 |
| 20260502044543 | 5 | 336 | 8.0 | 16.1 | 0.00 | 0.00 | 0.00 | 62 | 1016.5 |
| 20260502044448 | 5 | 333 | 6.4 | 16.1 | 0.00 | 0.00 | 0.00 | 63 | 1016.5 |
| 20260502044328 | 5 | 350 | 3.2 | 8.0 | 0.00 | 0.00 | 0.00 | 62 | 1016.5 |
| 20260502044231 | 5 | 327 | 3.2 | 8.0 | 0.00 | 0.00 | 0.00 | 62 | 1016.4 |
| 20260502044133 | 5 | 321 | 1.6 | 8.0 | 0.00 | 0.00 | 0.00 | 62 | 1016.4 |
| 20260502044035 | 5 | 330 | 3.2 | 8.0 | 0.00 | 0.00 | 0.00 | 62 | 1016.4 |
| 20260502043937 | 5 | 320 | 4.8 | 8.0 | 0.00 | 0.00 | 0.00 | 62 | 1016.4 |
| 20260502043837 | 5 | 50 | 1.6 | 8.0 | 0.00 | 0.00 | 0.00 | 62 | 1016.4 |
| 20260502043722 | 5 | 302 | 1.6 | 8.0 | 0.00 | 0.00 | 0.00 | 62 | 1016.4 |
| 20260502043624 | 5 | 355 | 1.6 | 8.0 | 0.00 | 0.00 | 0.00 | 62 | 1016.4 |
| 20260502043525 | 5 | 346 | 1.6 | 8.0 | 0.00 | 0.00 | 0.00 | 62 | 1016.4 |
| 20260502043426 | 5 | 345 | 3.2 | 8.0 | 0.00 | 0.00 | 0.00 | 62 | 1016.4 |
| 20260502043348 | 5 | 12 | 4.8 | 8.0 | 0.00 | 0.00 | 0.00 | 62 | 1016.4 |
| 20260502043250 | 5 | 10 | 4.8 | 14.5 | 0.00 | 0.00 | 0.00 | 62 | 1016.4 |
| 20260502043131 | 5 | 17 | 4.8 | 14.5 | 0.00 | 0.00 | 0.00 | 62 | 1016.4 |
| 20260502043033 | 5 | 17 | 3.2 | 14.5 | 0.00 | 0.00 | 0.00 | 62 | 1016.4 |
| 20260502042939 | 5 | 33 | 4.8 | 14.5 | 0.00 | 0.00 | 0.00 | 62 | 1016.4 |
| 20260502042840 | 5 | 310 | 3.2 | 14.5 | 0.00 | 0.00 | 0.00 | 62 | 1016.4 |
| 20260502042721 | 5 | 26 | 3.2 | 14.5 | 0.00 | 0.00 | 0.00 | 62 | 1016.4 |
| 20260502042624 | 5 | 355 | 4.8 | 14.5 | 0.00 | 0.00 | 0.00 | 61 | 1016.3 |
| 20260502042526 | 5 | 325 | 6.4 | 14.5 | 0.00 | 0.00 | 0.00 | 61 | 1016.4 |
| 20260502042427 | 5 | 355 | 6.4 | 14.5 | 0.00 | 0.00 | 0.00 | 61 | 1016.4 |
| 20260502042332 | 5 | 360 | 4.8 | 14.5 | 0.00 | 0.00 | 0.00 | 61 | 1016.3 |
| 20260502042234 | 5 | 351 | 6.4 | 14.5 | 0.00 | 0.00 | 0.00 | 61 | 1016.3 |
| 20260502042136 | 5 | 13 | 4.8 | 14.5 | 0.00 | 0.00 | 0.00 | 62 | 1016.3 |
| 20260502042038 | 5 | 5 | 3.2 | 14.5 | 0.00 | 0.00 | 0.00 | 62 | 1016.3 |
| 20260502042001 | 5 | 355 | 3.2 | 14.5 | 0.00 | 0.00 | 0.00 | 62 | 1016.3 |
| 20260502041842 | 5 | 340 | 4.8 | 14.5 | 0.00 | 0.00 | 0.00 | 61 | 1016.3 |
| 20260502041743 | 5 | 323 | 6.4 | 14.5 | 0.00 | 0.00 | 0.00 | 61 | 1016.3 |
| 20260502041627 | 5 | 337 | 8.0 | 14.5 | 0.00 | 0.00 | 0.00 | 61 | 1016.3 |
| 20260502041529 | 5 | 17 | 8.0 | 14.5 | 0.00 | 0.00 | 0.00 | 61 | 1016.3 |
| 20260502041432 | 5 | 27 | 8.0 | 14.5 | 0.00 | 0.00 | 0.00 | 61 | 1016.3 |
| 20260502041333 | 5 | 336 | 9.7 | 14.5 | 0.00 | 0.00 | 0.00 | 62 | 1016.3 |
| 20260502041234 | 5 | 39 | 9.7 | 14.5 | 0.00 | 0.00 | 0.00 | 62 | 1016.3 |
| 20260502041136 | 5 | 347 | 8.0 | 14.5 | 0.00 | 0.00 | 0.00 | 62 | 1016.3 |
| 20260502041022 | 5 | 340 | 4.8 | 14.5 | 0.00 | 0.00 | 0.00 | 62 | 1016.3 |
| 20260502040922 | 5 | 328 | 3.2 | 14.5 | 0.00 | 0.00 | 0.00 | 62 | 1016.3 |
| 20260502040824 | 5 | 339 | 4.8 | 14.5 | 0.00 | 0.00 | 0.00 | 62 | 1016.2 |
| 20260502040726 | 5 | 342 | 6.4 | 14.5 | 0.00 | 0.00 | 0.00 | 62 | 1016.2 |
| 20260502040628 | 5 | 5 | 6.4 | 19.3 | 0.00 | 0.00 | 0.00 | 62 | 1016.2 |
| 20260502040550 | 5 | 355 | 6.4 | 19.3 | 0.00 | 0.00 | 0.00 | 62 | 1016.2 |
| 20260502040451 | 5 | 5 | 6.4 | 19.3 | 0.00 | 0.00 | 0.00 | 62 | 1016.2 |
| 20260502040332 | 5 | 355 | 6.4 | 19.3 | 0.00 | 0.00 | 0.00 | 62 | 1016.2 |
| 20260502040238 | 5 | 5 | 4.8 | 19.3 | 0.00 | 0.00 | 0.00 | 62 | 1016.2 |
| 20260502040141 | 5 | 5 | 3.2 | 19.3 | 0.00 | 0.00 | 0.00 | 62 | 1016.2 |
| 20260502040042 | 5 | 342 | 4.8 | 19.3 | 0.00 | 0.00 | 0.00 | 62 | 1016.2 |
| 20260502040004 | 5 | 337 | 6.4 | 19.3 | 0.00 | 0.00 | 0.00 | 62 | 1016.2 |
| 20260502035842 | 5 | 34 | 11.3 | 19.3 | 0.00 | 0.00 | 0.00 | 61 | 1016.2 |
| 20260502035722 | 5 | 333 | 9.7 | 16.1 | 0.00 | 0.00 | 0.00 | 62 | 1016.2 |
| 20260502035603 | 5 | 24 | 4.8 | 14.5 | 0.00 | 0.00 | 0.00 | 62 | 1016.2 |
| 20260502035441 | 5 | 334 | 6.4 | 14.5 | 0.00 | 0.00 | 0.00 | 62 | 1016.2 |
| 20260502035319 | 5 | 355 | 8.0 | 14.5 | 0.00 | 0.00 | 0.00 | 62 | 1016.2 |
| 20260502035138 | 5 | 350 | 9.7 | 14.5 | 0.00 | 0.00 | 0.00 | 62 | 1016.1 |
| 20260502035020 | 5 | 25 | 6.4 | 12.9 | 0.00 | 0.00 | 0.00 | 62 | 1016.1 |
| 20260502034857 | 5 | 315 | 6.4 | 12.9 | 0.00 | 0.00 | 0.00 | 62 | 1016.1 |
| 20260502034736 | 5 | 342 | 8.0 | 17.7 | 0.00 | 0.00 | 0.00 | 62 | 1016.1 |
| 20260502034616 | 5 | 348 | 6.4 | 17.7 | 0.00 | 0.00 | 0.00 | 62 | 1016.1 |
| 20260502034431 | 5 | 316 | 8.0 | 17.7 | 0.00 | 0.00 | 0.00 | 62 | 1016.0 |
| 20260502034314 | 5 | 319 | 6.4 | 17.7 | 0.00 | 0.00 | 0.00 | 62 | 1016.0 |
| 20260502034152 | 5 | 317 | 6.4 | 17.7 | 0.00 | 0.00 | 0.00 | 61 | 1016.0 |
| 20260502034030 | 5 | 350 | 9.7 | 19.3 | 0.00 | 0.00 | 0.00 | 61 | 1016.0 |
| 20260502033909 | 5 | 329 | 8.0 | 19.3 | 0.00 | 0.00 | 0.00 | 62 | 1016.0 |
| 20260502033751 | 5 | 336 | 3.2 | 19.3 | 0.00 | 0.00 | 0.00 | 62 | 1016.0 |
| 20260502033629 | 5 | 9 | 6.4 | 19.3 | 0.00 | 0.00 | 0.00 | 61 | 1016.0 |
| 20260502033507 | 5 | 22 | 9.7 | 19.3 | 0.00 | 0.00 | 0.00 | 61 | 1016.0 |
| 20260502033343 | 5 | 11 | 11.3 | 19.3 | 0.00 | 0.00 | 0.00 | 62 | 1016.0 |
| 20260502033225 | 5 | 338 | 11.3 | 19.3 | 0.00 | 0.00 | 0.00 | 62 | 1016.0 |
| 20260502033102 | 5 | 15 | 9.7 | 16.1 | 0.00 | 0.00 | 0.00 | 62 | 1016.1 |
| 20260502032941 | 5 | 346 | 6.4 | 11.3 | 0.00 | 0.00 | 0.00 | 63 | 1016.0 |
| 20260502032819 | 5 | 341 | 4.8 | 11.3 | 0.00 | 0.00 | 0.00 | 63 | 1016.0 |
| 20260502032657 | 5 | 355 | 1.6 | 12.9 | 0.00 | 0.00 | 0.00 | 63 | 1016.0 |
| 20260502032517 | 5 | 323 | 4.8 | 12.9 | 0.00 | 0.00 | 0.00 | 63 | 1016.0 |
| 20260502032355 | 5 | 42 | 3.2 | 12.9 | 0.00 | 0.00 | 0.00 | 63 | 1016.0 |
| 20260502032214 | 5 | 329 | 3.2 | 12.9 | 0.00 | 0.00 | 0.00 | 63 | 1015.9 |
| 20260502032052 | 5 | 355 | 4.8 | 12.9 | 0.00 | 0.00 | 0.00 | 63 | 1015.9 |
| 20260502031932 | 5 | 38 | 3.2 | 12.9 | 0.00 | 0.00 | 0.00 | 63 | 1015.9 |
| 20260502031752 | 5 | 350 | 3.2 | 12.9 | 0.00 | 0.00 | 0.00 | 63 | 1015.9 |
| 20260502031630 | 5 | 329 | 6.4 | 12.9 | 0.00 | 0.00 | 0.00 | 63 | 1015.9 |
| 20260502031510 | 5 | 334 | 4.8 | 12.9 | 0.00 | 0.00 | 0.00 | 63 | 1015.9 |
| 20260502031353 | 5 | 331 | 6.4 | 12.9 | 0.00 | 0.00 | 0.00 | 63 | 1015.9 |
| 20260502031230 | 5 | 332 | 6.4 | 12.9 | 0.00 | 0.00 | 0.00 | 63 | 1015.9 |
| 20260502031109 | 5 | 355 | 8.0 | 12.9 | 0.00 | 0.00 | 0.00 | 63 | 1015.9 |
| 20260502030947 | 5 | 343 | 8.0 | 12.9 | 0.00 | 0.00 | 0.00 | 63 | 1015.9 |
| 20260502030803 | 5 | 340 | 6.4 | 14.5 | 0.00 | 0.00 | 0.00 | 63 | 1015.9 |
| 20260502030644 | 5 | 340 | 4.8 | 14.5 | 0.00 | 0.00 | 0.00 | 63 | 1015.9 |
| 20260502030521 | 5 | 338 | 4.8 | 14.5 | 0.00 | 0.00 | 0.00 | 63 | 1015.9 |
| 20260502030359 | 5 | 327 | 4.8 | 14.5 | 0.00 | 0.00 | 0.00 | 63 | 1015.9 |
| 20260502030237 | 5 | 340 | 6.4 | 14.5 | 0.00 | 0.00 | 0.00 | 63 | 1015.9 |
| 20260502030119 | 5 | 322 | 9.7 | 14.5 | 0.00 | 0.00 | 0.00 | 63 | 1015.9 |
| 20260502025938 | 5 | 360 | 8.0 | 14.5 | 0.00 | 0.00 | 0.00 | 63 | 1015.8 |
| 20260502025818 | 5 | 346 | 6.4 | 14.5 | 0.00 | 0.00 | 0.00 | 64 | 1015.9 |
| 20260502025656 | 5 | 322 | 6.4 | 14.5 | 0.00 | 0.00 | 0.00 | 64 | 1015.9 |
| 20260502025537 | 5 | 5 | 8.0 | 14.5 | 0.00 | 0.00 | 0.00 | 64 | 1015.9 |
| 20260502025414 | 5 | 350 | 6.4 | 14.5 | 0.00 | 0.00 | 0.00 | 64 | 1015.9 |
| 20260502025251 | 5 | 27 | 4.8 | 14.5 | 0.00 | 0.00 | 0.00 | 64 | 1015.9 |
| 20260502025109 | 5 | 40 | 9.7 | 14.5 | 0.00 | 0.00 | 0.00 | 64 | 1015.9 |
| 20260502024928 | 5 | 338 | 8.0 | 14.5 | 0.00 | 0.00 | 0.00 | 64 | 1015.9 |
| 20260502024811 | 5 | 22 | 4.8 | 12.9 | 0.00 | 0.00 | 0.00 | 65 | 1015.9 |
| 20260502024628 | 5 | 355 | 6.4 | 12.9 | 0.00 | 0.00 | 0.00 | 65 | 1015.9 |
| 20260502024443 | 5 | 28 | 6.4 | 12.9 | 0.00 | 0.00 | 0.00 | 65 | 1015.9 |
| 20260502024326 | 5 | 339 | 6.4 | 17.7 | 0.00 | 0.00 | 0.00 | 66 | 1015.9 |
| 20260502024207 | 5 | 338 | 3.2 | 17.7 | 0.00 | 0.00 | 0.00 | 66 | 1015.9 |
| 20260502024046 | 5 | 329 | 6.4 | 17.7 | 0.00 | 0.00 | 0.00 | 66 | 1015.8 |
| 20260502023903 | 5 | 350 | 4.8 | 17.7 | 0.00 | 0.00 | 0.00 | 67 | 1015.9 |
| 20260502023742 | 5 | 341 | 6.4 | 17.7 | 0.00 | 0.00 | 0.00 | 66 | 1015.8 |
| 20260502023623 | 5 | 307 | 8.0 | 17.7 | 0.00 | 0.00 | 0.00 | 66 | 1015.8 |
| 20260502023501 | 5 | 350 | 6.4 | 14.5 | 0.00 | 0.00 | 0.00 | 67 | 1015.8 |
| 20260502023317 | 5 | 275 | 3.2 | 14.5 | 0.00 | 0.00 | 0.00 | 68 | 1015.8 |
| 20260502023158 | 5 | 321 | 3.2 | 14.5 | 0.00 | 0.00 | 0.00 | 68 | 1015.8 |
| 20260502023035 | 5 | 331 | 4.8 | 14.5 | 0.00 | 0.00 | 0.00 | 67 | 1015.8 |
| 20260502022915 | 5 | 295 | 8.0 | 14.5 | 0.00 | 0.00 | 0.00 | 67 | 1015.8 |
| 20260502022732 | 5 | 295 | 9.7 | 14.5 | 0.00 | 0.00 | 0.00 | 68 | 1015.8 |
| 20260502022610 | 5 | 307 | 6.4 | 12.9 | 0.00 | 0.00 | 0.00 | 68 | 1015.8 |
| 20260502022447 | 5 | 276 | 6.4 | 12.9 | 0.00 | 0.00 | 0.00 | 68 | 1015.8 |
| 20260502022327 | 5 | 300 | 6.4 | 8.0 | 0.00 | 0.00 | 0.00 | 68 | 1015.8 |
| 20260502022144 | 5 | 294 | 4.8 | 8.0 | 0.00 | 0.00 | 0.00 | 68 | 1015.8 |
| 20260502022021 | 5 | 301 | 1.6 | 6.4 | 0.00 | 0.00 | 0.00 | 68 | 1015.8 |
| 20260502021840 | 5 | 283 | 0.0 | 6.4 | 0.00 | 0.00 | 0.00 | 68 | 1015.8 |
| 20260502021722 | 5 | 284 | 1.6 | 6.4 | 0.00 | 0.00 | 0.00 | 68 | 1015.8 |
| 20260502021600 | 5 | 284 | 3.2 | 6.4 | 0.00 | 0.00 | 0.00 | 68 | 1015.8 |
| 20260502021438 | 5 | 265 | 0.0 | 6.4 | 0.00 | 0.00 | 0.00 | 67 | 1015.7 |
| 20260502021316 | 5 | 257 | 0.0 | 6.4 | 0.00 | 0.00 | 0.00 | 67 | 1015.7 |
| 20260502021157 | 5 | 256 | 1.6 | 6.4 | 0.00 | 0.00 | 0.00 | 67 | 1015.7 |
| 20260502021039 | 5 | 256 | 1.6 | 6.4 | 0.00 | 0.00 | 0.00 | 67 | 1015.7 |
| 20260502020920 | 5 | 268 | 1.6 | 6.4 | 0.00 | 0.00 | 0.00 | 67 | 1015.6 |
| 20260502020739 | 5 | 270 | 1.6 | 6.4 | 0.00 | 0.00 | 0.00 | 67 | 1015.7 |
| 20260502020617 | 5 | 284 | 1.6 | 4.8 | 0.00 | 0.00 | 0.00 | 67 | 1015.6 |
| 20260502020438 | 5 | 287 | 0.0 | 4.8 | 0.00 | 0.00 | 0.00 | 67 | 1015.6 |
| 20260502020255 | 5 | 288 | 1.6 | 4.8 | 0.00 | 0.00 | 0.00 | 67 | 1015.7 |
| 20260502020131 | 5 | 288 | 1.6 | 4.8 | 0.00 | 0.00 | 0.00 | 67 | 1015.6 |
| 20260502020012 | 5 | 290 | 0.0 | 4.8 | 0.00 | 0.00 | 0.00 | 67 | 1015.6 |
| 20260502015836 | 5 | 291 | 1.6 | 4.8 | 0.00 | 0.00 | 0.00 | 67 | 1015.6 |
| 20260502015715 | 5 | 290 | 1.6 | 4.8 | 0.00 | 0.00 | 0.00 | 67 | 1015.6 |
| 20260502015553 | 5 | 290 | 1.6 | 4.8 | 0.00 | 0.00 | 0.00 | 67 | 1015.6 |
| 20260502015431 | 5 | 286 | 1.6 | 4.8 | 0.00 | 0.00 | 0.00 | 67 | 1015.5 |
| 20260502015313 | 5 | 286 | 1.6 | 4.8 | 0.00 | 0.00 | 0.00 | 67 | 1015.5 |
| 20260502015150 | 5 | 276 | 0.0 | 6.4 | 0.00 | 0.00 | 0.00 | 67 | 1015.5 |
| 20260502015028 | 5 | 275 | 0.0 | 6.4 | 0.00 | 0.00 | 0.00 | 67 | 1015.5 |
| 20260502014906 | 5 | 263 | 0.0 | 6.4 | 0.00 | 0.00 | 0.00 | 67 | 1015.5 |
| 20260502014745 | 5 | 263 | 1.6 | 6.4 | 0.00 | 0.00 | 0.00 | 67 | 1015.5 |
| 20260502014627 | 5 | 263 | 1.6 | 6.4 | 0.00 | 0.00 | 0.00 | 67 | 1015.5 |
| 20260502014504 | 5 | 292 | 1.6 | 6.4 | 0.00 | 0.00 | 0.00 | 67 | 1015.5 |
| 20260502014344 | 5 | 280 | 0.0 | 6.4 | 0.00 | 0.00 | 0.00 | 67 | 1015.5 |
| 20260502014226 | 5 | 286 | 0.0 | 6.4 | 0.00 | 0.00 | 0.00 | 67 | 1015.5 |
| 20260502014107 | 5 | 296 | 1.6 | 6.4 | 0.00 | 0.00 | 0.00 | 67 | 1015.4 |
| 20260502013945 | 5 | 279 | 1.6 | 6.4 | 0.00 | 0.00 | 0.00 | 66 | 1015.4 |
| 20260502013821 | 5 | 277 | 3.2 | 6.4 | 0.00 | 0.00 | 0.00 | 66 | 1015.4 |
| 20260502013638 | 6 | 282 | 3.2 | 9.7 | 0.00 | 0.00 | 0.00 | 66 | 1015.4 |
| 20260502013519 | 6 | 302 | 3.2 | 9.7 | 0.00 | 0.00 | 0.00 | 66 | 1015.4 |
| 20260502013358 | 6 | 273 | 3.2 | 9.7 | 0.00 | 0.00 | 0.00 | 66 | 1015.4 |
| 20260502013238 | 6 | 276 | 1.6 | 11.3 | 0.00 | 0.00 | 0.00 | 66 | 1015.4 |
| 20260502013117 | 6 | 302 | 3.2 | 11.3 | 0.00 | 0.00 | 0.00 | 66 | 1015.4 |
| 20260502012955 | 6 | 296 | 4.8 | 11.3 | 0.00 | 0.00 | 0.00 | 66 | 1015.4 |
| 20260502012835 | 6 | 292 | 4.8 | 11.3 | 0.00 | 0.00 | 0.00 | 65 | 1015.4 |
| 20260502012714 | 6 | 281 | 6.4 | 12.9 | 0.00 | 0.00 | 0.00 | 65 | 1015.4 |
| 20260502012551 | 6 | 294 | 6.4 | 12.9 | 0.00 | 0.00 | 0.00 | 65 | 1015.4 |
| 20260502012431 | 6 | 302 | 4.8 | 12.9 | 0.00 | 0.00 | 0.00 | 65 | 1015.4 |
| 20260502012253 | 6 | 321 | 4.8 | 12.9 | 0.00 | 0.00 | 0.00 | 65 | 1015.3 |
| 20260502012131 | 6 | 302 | 8.0 | 12.9 | 0.00 | 0.00 | 0.00 | 65 | 1015.3 |
| 20260502012007 | 6 | 306 | 8.0 | 12.9 | 0.00 | 0.00 | 0.00 | 65 | 1015.4 |
| 20260502011846 | 6 | 294 | 8.0 | 12.9 | 0.00 | 0.00 | 0.00 | 65 | 1015.3 |
| 20260502011707 | 6 | 284 | 6.4 | 12.9 | 0.00 | 0.00 | 0.00 | 66 | 1015.3 |
| 20260502011545 | 6 | 290 | 4.8 | 12.9 | 0.00 | 0.00 | 0.00 | 66 | 1015.3 |
| 20260502011423 | 6 | 306 | 4.8 | 12.9 | 0.00 | 0.00 | 0.00 | 66 | 1015.3 |
| 20260502011304 | 6 | 265 | 6.4 | 12.9 | 0.00 | 0.00 | 0.00 | 66 | 1015.3 |
| 20260502011141 | 6 | 300 | 8.0 | 12.9 | 0.00 | 0.00 | 0.00 | 66 | 1015.3 |
| 20260502011022 | 6 | 286 | 8.0 | 12.9 | 0.00 | 0.00 | 0.00 | 65 | 1015.3 |
| 20260502010820 | 6 | 309 | 8.0 | 12.9 | 0.00 | 0.00 | 0.00 | 65 | 1015.3 |
| 20260502010657 | 6 | 315 | 9.7 | 12.9 | 0.00 | 0.00 | 0.00 | 65 | 1015.3 |
| 20260502010535 | 6 | 300 | 4.8 | 12.9 | 0.00 | 0.00 | 0.00 | 66 | 1015.2 |
| 20260502010359 | 6 | 325 | 6.4 | 14.5 | 0.00 | 0.00 | 0.00 | 66 | 1015.2 |
| 20260502010238 | 6 | 311 | 8.0 | 14.5 | 0.00 | 0.00 | 0.00 | 66 | 1015.2 |
| 20260502010118 | 6 | 309 | 4.8 | 14.5 | 0.00 | 0.00 | 0.00 | 66 | 1015.2 |
| 20260502005959 | 6 | 290 | 6.4 | 14.5 | 0.00 | 0.00 | 0.00 | 65 | 1015.2 |
| 20260502005820 | 6 | 288 | 9.7 | 14.5 | 0.00 | 0.00 | 0.00 | 65 | 1015.2 |
| 20260502005659 | 6 | 308 | 9.7 | 14.5 | 0.00 | 0.00 | 0.00 | 65 | 1015.2 |
| 20260502005536 | 6 | 281 | 8.0 | 14.5 | 0.00 | 0.00 | 0.00 | 65 | 1015.2 |
| 20260502005357 | 6 | 315 | 8.0 | 14.5 | 0.00 | 0.00 | 0.00 | 65 | 1015.2 |
| 20260502005221 | 6 | 317 | 8.0 | 20.9 | 0.00 | 0.00 | 0.00 | 65 | 1015.2 |
| 20260502005037 | 6 | 304 | 6.4 | 20.9 | 0.00 | 0.00 | 0.00 | 64 | 1015.1 |
| 20260502004914 | 6 | 318 | 8.0 | 20.9 | 0.00 | 0.00 | 0.00 | 64 | 1015.1 |
| 20260502004711 | 6 | 305 | 9.7 | 20.9 | 0.00 | 0.00 | 0.00 | 64 | 1015.1 |
| 20260502004553 | 6 | 321 | 12.9 | 20.9 | 0.00 | 0.00 | 0.00 | 64 | 1015.1 |
| 20260502004432 | 6 | 301 | 12.9 | 20.9 | 0.00 | 0.00 | 0.00 | 64 | 1015.1 |
| 20260502004309 | 6 | 321 | 8.0 | 20.9 | 0.00 | 0.00 | 0.00 | 64 | 1015.1 |
| 20260502004127 | 6 | 293 | 8.0 | 20.9 | 0.00 | 0.00 | 0.00 | 63 | 1015.1 |
| 20260502003952 | 6 | 271 | 12.9 | 20.9 | 0.00 | 0.00 | 0.00 | 63 | 1015.1 |
| 20260502003829 | 6 | 282 | 12.9 | 19.3 | 0.00 | 0.00 | 0.00 | 63 | 1015.1 |
| 20260502003709 | 6 | 310 | 11.3 | 19.3 | 0.00 | 0.00 | 0.00 | 63 | 1015.1 |
| 20260502003546 | 6 | 310 | 11.3 | 20.9 | 0.00 | 0.00 | 0.00 | 63 | 1015.1 |
| 20260502003423 | 6 | 305 | 11.3 | 20.9 | 0.00 | 0.00 | 0.00 | 63 | 1015.1 |
| 20260502003305 | 6 | 303 | 9.7 | 20.9 | 0.00 | 0.00 | 0.00 | 63 | 1015.1 |
| 20260502003142 | 6 | 307 | 12.9 | 20.9 | 0.00 | 0.00 | 0.00 | 63 | 1015.0 |
| 20260502003020 | 6 | 306 | 9.7 | 20.9 | 0.00 | 0.00 | 0.00 | 63 | 1015.0 |
| 20260502002857 | 6 | 309 | 12.9 | 20.9 | 0.00 | 0.00 | 0.00 | 63 | 1015.0 |
| 20260502002722 | 6 | 303 | 9.7 | 17.7 | 0.00 | 0.00 | 0.00 | 64 | 1015.0 |
| 20260502002603 | 6 | 275 | 8.0 | 16.1 | 0.00 | 0.00 | 0.00 | 64 | 1015.0 |
| 20260502002440 | 6 | 316 | 9.7 | 16.1 | 0.00 | 0.00 | 0.00 | 64 | 1015.0 |
| 20260502002322 | 6 | 300 | 9.7 | 16.1 | 0.00 | 0.00 | 0.00 | 64 | 1015.0 |
| 20260502002203 | 6 | 301 | 8.0 | 16.1 | 0.00 | 0.00 | 0.00 | 65 | 1015.0 |
| 20260502002042 | 6 | 286 | 6.4 | 12.9 | 0.00 | 0.00 | 0.00 | 65 | 1015.0 |
| 20260502001919 | 6 | 327 | 4.8 | 11.3 | 0.00 | 0.00 | 0.00 | 65 | 1015.0 |
| 20260502001758 | 6 | 360 | 3.2 | 9.7 | 0.00 | 0.00 | 0.00 | 66 | 1015.0 |
| 20260502001641 | 6 | 319 | 3.2 | 11.3 | 0.00 | 0.00 | 0.00 | 65 | 1015.0 |
| 20260502001521 | 6 | 302 | 3.2 | 11.3 | 0.00 | 0.00 | 0.00 | 65 | 1015.0 |
| 20260502001359 | 6 | 327 | 3.2 | 11.3 | 0.00 | 0.00 | 0.00 | 64 | 1014.9 |
| 20260502001215 | 6 | 334 | 4.8 | 11.3 | 0.00 | 0.00 | 0.00 | 64 | 1014.9 |
| 20260502001031 | 6 | 304 | 3.2 | 11.3 | 0.00 | 0.00 | 0.00 | 65 | 1014.9 |
| 20260502000914 | 6 | 333 | 4.8 | 11.3 | 0.00 | 0.00 | 0.00 | 64 | 1014.9 |
| 20260502000753 | 6 | 319 | 4.8 | 12.9 | 0.00 | 0.00 | 0.00 | 64 | 1015.0 |
| 20260502000629 | 6 | 309 | 6.4 | 12.9 | 0.00 | 0.00 | 0.00 | 65 | 1014.9 |
| 20260502000508 | 6 | 296 | 3.2 | 12.9 | 0.00 | 0.00 | 0.00 | 65 | 1014.9 |
| 20260502000349 | 6 | 309 | 3.2 | 12.9 | 0.00 | 0.00 | 0.00 | 64 | 1014.9 |
| 20260502000208 | 6 | 344 | 6.4 | 12.9 | 0.00 | 0.00 | 0.00 | 64 | 1014.9 |
| 20260502000047 | 6 | 329 | 6.4 | 12.9 | 0.00 | 0.00 | 0.00 | 64 | 1014.9 |
| 20260501235924 | 6 | 312 | 4.8 | 12.9 | 0.00 | 0.00 | 0.00 | 64 | 1014.8 |
| 20260501235806 | 6 | 15 | 3.2 | 14.5 | 0.00 | 0.00 | 0.00 | 64 | 1014.8 |
| 20260501235643 | 6 | 304 | 6.4 | 14.5 | 0.00 | 0.00 | 0.00 | 64 | 1014.8 |
| 20260501235501 | 6 | 344 | 6.4 | 14.5 | 0.00 | 0.00 | 0.00 | 64 | 1014.8 |
| 20260501235339 | 6 | 303 | 8.0 | 14.5 | 0.00 | 0.00 | 0.00 | 64 | 1014.9 |
| 20260501235203 | 6 | 312 | 9.7 | 14.5 | 0.00 | 0.00 | 0.00 | 64 | 1014.9 |
| 20260501235040 | 6 | 288 | 6.4 | 14.5 | 0.00 | 0.00 | 0.00 | 64 | 1014.8 |
| 20260501234922 | 6 | 290 | 4.8 | 12.9 | 0.00 | 0.00 | 0.00 | 64 | 1014.8 |
| 20260501234759 | 6 | 303 | 3.2 | 17.7 | 0.00 | 0.00 | 0.00 | 64 | 1014.8 |
| 20260501234637 | 6 | 294 | 6.4 | 17.7 | 0.00 | 0.00 | 0.00 | 64 | 1014.8 |
| 20260501234517 | 6 | 294 | 8.0 | 17.7 | 0.00 | 0.00 | 0.00 | 64 | 1014.8 |
| 20260501234355 | 6 | 338 | 8.0 | 17.7 | 0.00 | 0.00 | 0.00 | 64 | 1014.7 |
| 20260501234233 | 6 | 322 | 8.0 | 17.7 | 0.00 | 0.00 | 0.00 | 64 | 1014.7 |
| 20260501234111 | 6 | 310 | 9.7 | 17.7 | 0.00 | 0.00 | 0.00 | 64 | 1014.7 |
| 20260501233953 | 6 | 298 | 9.7 | 17.7 | 0.00 | 0.00 | 0.00 | 65 | 1014.7 |
| 20260501233830 | 6 | 304 | 8.0 | 16.1 | 0.00 | 0.00 | 0.00 | 65 | 1014.7 |
| 20260501233708 | 6 | 279 | 9.7 | 16.1 | 0.00 | 0.00 | 0.00 | 65 | 1014.7 |
| 20260501233546 | 6 | 292 | 6.4 | 12.9 | 0.00 | 0.00 | 0.00 | 66 | 1014.7 |
| 20260501233427 | 6 | 311 | 4.8 | 14.5 | 0.00 | 0.00 | 0.00 | 66 | 1014.7 |
| 20260501233244 | 6 | 302 | 3.2 | 14.5 | 0.00 | 0.00 | 0.00 | 66 | 1014.7 |
| 20260501233121 | 6 | 5 | 4.8 | 14.5 | 0.00 | 0.00 | 0.00 | 66 | 1014.7 |
| 20260501232958 | 6 | 306 | 4.8 | 14.5 | 0.00 | 0.00 | 0.00 | 66 | 1014.7 |
| 20260501232838 | 6 | 306 | 6.4 | 14.5 | 0.00 | 0.00 | 0.00 | 65 | 1014.7 |
| 20260501232719 | 6 | 331 | 8.0 | 14.5 | 0.00 | 0.00 | 0.00 | 65 | 1014.7 |
| 20260501232555 | 6 | 331 | 8.0 | 12.9 | 0.00 | 0.00 | 0.00 | 65 | 1014.7 |
| 20260501232433 | 6 | 283 | 8.0 | 12.9 | 0.00 | 0.00 | 0.00 | 65 | 1014.8 |
| 20260501232310 | 6 | 285 | 6.4 | 16.1 | 0.00 | 0.00 | 0.00 | 65 | 1014.7 |
| 20260501232152 | 6 | 292 | 3.2 | 16.1 | 0.00 | 0.00 | 0.00 | 65 | 1014.8 |
| 20260501232031 | 6 | 318 | 6.4 | 16.1 | 0.00 | 0.00 | 0.00 | 65 | 1014.8 |
| 20260501231907 | 6 | 289 | 8.0 | 16.1 | 0.00 | 0.00 | 0.00 | 65 | 1014.7 |
| 20260501231745 | 6 | 330 | 4.8 | 16.1 | 0.00 | 0.00 | 0.00 | 65 | 1014.7 |
| 20260501231626 | 6 | 334 | 8.0 | 16.1 | 0.00 | 0.00 | 0.00 | 65 | 1014.7 |
| 20260501231504 | 6 | 344 | 9.7 | 16.1 | 0.00 | 0.00 | 0.00 | 65 | 1014.7 |
| 20260501231342 | 6 | 302 | 6.4 | 12.9 | 0.00 | 0.00 | 0.00 | 65 | 1014.7 |
| 20260501231219 | 6 | 291 | 6.4 | 12.9 | 0.00 | 0.00 | 0.00 | 65 | 1014.7 |
| 20260501231045 | 6 | 332 | 6.4 | 16.1 | 0.00 | 0.00 | 0.00 | 65 | 1014.7 |
| 20260501230923 | 6 | 302 | 4.8 | 16.1 | 0.00 | 0.00 | 0.00 | 65 | 1014.7 |
| 20260501230759 | 6 | 304 | 6.4 | 16.1 | 0.00 | 0.00 | 0.00 | 65 | 1014.7 |
| 20260501230637 | 6 | 296 | 4.8 | 16.1 | 0.00 | 0.00 | 0.00 | 65 | 1014.7 |
| 20260501230514 | 6 | 335 | 6.4 | 16.1 | 0.00 | 0.00 | 0.00 | 64 | 1014.7 |
| 20260501230356 | 6 | 327 | 9.7 | 16.1 | 0.00 | 0.00 | 0.00 | 64 | 1014.7 |
| 20260501230233 | 6 | 311 | 6.4 | 16.1 | 0.00 | 0.00 | 0.00 | 65 | 1014.7 |
| 20260501230109 | 6 | 334 | 6.4 | 11.3 | 0.00 | 0.00 | 0.00 | 65 | 1014.7 |
| 20260501225925 | 6 | 310 | 6.4 | 12.9 | 0.00 | 0.00 | 0.00 | 65 | 1014.7 |
| 20260501225807 | 6 | 313 | 8.0 | 12.9 | 0.00 | 0.00 | 0.00 | 65 | 1014.7 |
| 20260501225644 | 6 | 302 | 6.4 | 12.9 | 0.00 | 0.00 | 0.00 | 65 | 1014.7 |
| 20260501225503 | 6 | 328 | 6.4 | 12.9 | 0.00 | 0.00 | 0.00 | 65 | 1014.7 |
| 20260501225342 | 6 | 327 | 4.8 | 12.9 | 0.00 | 0.00 | 0.00 | 65 | 1014.7 |
| 20260501225224 | 6 | 346 | 6.4 | 12.9 | 0.00 | 0.00 | 0.00 | 65 | 1014.7 |
| 20260501225101 | 6 | 327 | 4.8 | 14.5 | 0.00 | 0.00 | 0.00 | 65 | 1014.7 |
| 20260501224940 | 6 | 337 | 6.4 | 14.5 | 0.00 | 0.00 | 0.00 | 66 | 1014.7 |
| 20260501224819 | 6 | 325 | 4.8 | 14.5 | 0.00 | 0.00 | 0.00 | 65 | 1014.7 |
| 20260501224659 | 6 | 328 | 4.8 | 14.5 | 0.00 | 0.00 | 0.00 | 65 | 1014.7 |
| 20260501224538 | 6 | 355 | 9.7 | 14.5 | 0.00 | 0.00 | 0.00 | 65 | 1014.7 |
| 20260501224416 | 6 | 297 | 11.3 | 14.5 | 0.00 | 0.00 | 0.00 | 65 | 1014.7 |
| 20260501224255 | 6 | 298 | 9.7 | 14.5 | 0.00 | 0.00 | 0.00 | 65 | 1014.7 |
| 20260501224132 | 6 | 296 | 8.0 | 19.3 | 0.00 | 0.00 | 0.00 | 65 | 1014.7 |
| 20260501223933 | 6 | 306 | 9.7 | 24.1 | 0.00 | 0.00 | 0.00 | 65 | 1014.7 |
| 20260501223811 | 6 | 321 | 8.0 | 24.1 | 0.00 | 0.00 | 0.00 | 65 | 1014.7 |
| 20260501223649 | 6 | 309 | 8.0 | 24.1 | 0.00 | 0.00 | 0.00 | 64 | 1014.7 |
| 20260501223526 | 7 | 310 | 9.7 | 24.1 | 0.00 | 0.00 | 0.00 | 65 | 1014.7 |
| 20260501223408 | 7 | 300 | 12.9 | 24.1 | 0.00 | 0.00 | 0.00 | 64 | 1014.7 |
| 20260501223244 | 7 | 41 | 11.3 | 24.1 | 0.00 | 0.00 | 0.00 | 65 | 1014.7 |
| 20260501223121 | 7 | 360 | 6.4 | 17.7 | 0.00 | 0.00 | 0.00 | 65 | 1014.7 |
| 20260501223002 | 7 | 341 | 6.4 | 17.7 | 0.00 | 0.00 | 0.00 | 65 | 1014.7 |
| 20260501222821 | 7 | 348 | 9.7 | 17.7 | 0.00 | 0.00 | 0.00 | 64 | 1014.7 |
| 20260501222702 | 7 | 347 | 9.7 | 17.7 | 0.00 | 0.00 | 0.00 | 64 | 1014.7 |
| 20260501222540 | 7 | 330 | 6.4 | 17.7 | 0.00 | 0.00 | 0.00 | 65 | 1014.7 |
| 20260501222419 | 7 | 341 | 9.7 | 17.7 | 0.00 | 0.00 | 0.00 | 64 | 1014.7 |
| 20260501222236 | 7 | 325 | 11.3 | 17.7 | 0.00 | 0.00 | 0.00 | 64 | 1014.6 |
| 20260501222118 | 7 | 355 | 6.4 | 16.1 | 0.00 | 0.00 | 0.00 | 64 | 1014.6 |
| 20260501221956 | 7 | 336 | 8.0 | 16.1 | 0.00 | 0.00 | 0.00 | 64 | 1014.6 |
| 20260501221833 | 7 | 333 | 9.7 | 16.1 | 0.00 | 0.00 | 0.00 | 63 | 1014.6 |
| 20260501221712 | 7 | 298 | 9.7 | 16.1 | 0.00 | 0.00 | 0.00 | 64 | 1014.6 |
| 20260501221534 | 7 | 340 | 8.0 | 16.1 | 0.00 | 0.00 | 0.00 | 63 | 1014.5 |
| 20260501221412 | 7 | 329 | 9.7 | 16.1 | 0.00 | 0.00 | 0.00 | 63 | 1014.5 |
| 20260501221230 | 7 | 355 | 8.0 | 16.1 | 0.00 | 0.00 | 0.00 | 64 | 1014.5 |
| 20260501221108 | 7 | 295 | 6.4 | 19.3 | 0.00 | 0.00 | 0.00 | 63 | 1014.5 |
| 20260501220948 | 7 | 311 | 8.0 | 20.9 | 0.00 | 0.00 | 0.00 | 64 | 1014.5 |
| 20260501220831 | 7 | 24 | 9.7 | 20.9 | 0.00 | 0.00 | 0.00 | 64 | 1014.5 |
| 20260501220708 | 7 | 341 | 9.7 | 20.9 | 0.00 | 0.00 | 0.00 | 64 | 1014.5 |
| 20260501220545 | 7 | 330 | 6.4 | 22.5 | 0.00 | 0.00 | 0.00 | 64 | 1014.5 |
| 20260501220422 | 7 | 5 | 9.7 | 22.5 | 0.00 | 0.00 | 0.00 | 63 | 1014.5 |
| 20260501220303 | 7 | 325 | 11.3 | 22.5 | 0.00 | 0.00 | 0.00 | 63 | 1014.5 |
| 20260501220144 | 7 | 19 | 8.0 | 22.5 | 0.00 | 0.00 | 0.00 | 63 | 1014.5 |
| 20260501220000 | 7 | 335 | 9.7 | 22.5 | 0.00 | 0.00 | 0.00 | 63 | 1014.5 |
| 20260501215838 | 7 | 309 | 12.9 | 22.5 | 0.00 | 0.00 | 0.00 | 62 | 1014.5 |
| 20260501215702 | 7 | 55 | 9.7 | 19.3 | 0.00 | 0.00 | 0.00 | 62 | 1014.5 |
| 20260501215540 | 7 | 338 | 11.3 | 19.3 | 0.00 | 0.00 | 0.00 | 61 | 1014.4 |
| 20260501215419 | 7 | 296 | 9.7 | 22.5 | 0.00 | 0.00 | 0.00 | 62 | 1014.4 |
| 20260501215239 | 7 | 289 | 6.4 | 22.5 | 0.00 | 0.00 | 0.00 | 61 | 1014.4 |
| 20260501215101 | 7 | 299 | 9.7 | 22.5 | 0.00 | 0.00 | 0.00 | 61 | 1014.4 |
| 20260501214939 | 7 | 304 | 9.7 | 22.5 | 0.00 | 0.00 | 0.00 | 61 | 1014.4 |
| 20260501214817 | 7 | 309 | 11.3 | 22.5 | 0.00 | 0.00 | 0.00 | 61 | 1014.4 |
| 20260501214654 | 7 | 317 | 14.5 | 22.5 | 0.00 | 0.00 | 0.00 | 61 | 1014.4 |
| 20260501214532 | 7 | 286 | 8.0 | 22.5 | 0.00 | 0.00 | 0.00 | 62 | 1014.4 |
| 20260501214414 | 7 | 288 | 6.4 | 16.1 | 0.00 | 0.00 | 0.00 | 61 | 1014.4 |
| 20260501214253 | 7 | 289 | 6.4 | 17.7 | 0.00 | 0.00 | 0.00 | 61 | 1014.4 |
| 20260501214131 | 7 | 287 | 6.4 | 17.7 | 0.00 | 0.00 | 0.00 | 61 | 1014.4 |
| 20260501214012 | 7 | 284 | 6.4 | 20.9 | 0.00 | 0.00 | 0.00 | 61 | 1014.4 |
| 20260501213854 | 7 | 275 | 6.4 | 25.7 | 0.00 | 0.00 | 0.00 | 60 | 1014.4 |
| 20260501213732 | 7 | 298 | 9.7 | 25.7 | 0.00 | 0.00 | 0.00 | 60 | 1014.4 |
| 20260501213612 | 7 | 305 | 11.3 | 25.7 | 0.00 | 0.00 | 0.00 | 60 | 1014.4 |
| 20260501213450 | 7 | 286 | 12.9 | 25.7 | 0.00 | 0.00 | 0.00 | 60 | 1014.4 |
| 20260501213311 | 7 | 315 | 14.5 | 25.7 | 0.00 | 0.00 | 0.00 | 59 | 1014.4 |
| 20260501213149 | 7 | 317 | 16.1 | 25.7 | 0.00 | 0.00 | 0.00 | 59 | 1014.3 |
| 20260501213008 | 7 | 294 | 11.3 | 20.9 | 0.00 | 0.00 | 0.00 | 59 | 1014.3 |
| 20260501212846 | 7 | 290 | 12.9 | 20.9 | 0.00 | 0.00 | 0.00 | 59 | 1014.4 |
| 20260501212725 | 7 | 311 | 12.9 | 20.9 | 0.00 | 0.00 | 0.00 | 59 | 1014.3 |
| 20260501212607 | 7 | 286 | 11.3 | 20.9 | 0.00 | 0.00 | 0.00 | 58 | 1014.3 |
| 20260501212443 | 7 | 264 | 12.9 | 20.9 | 0.00 | 0.00 | 0.00 | 58 | 1014.3 |
| 20260501212320 | 7 | 304 | 12.9 | 20.9 | 0.00 | 0.00 | 0.00 | 58 | 1014.3 |
| 20260501212159 | 7 | 290 | 11.3 | 20.9 | 0.00 | 0.00 | 0.00 | 58 | 1014.3 |
| 20260501212041 | 7 | 313 | 12.9 | 20.9 | 0.00 | 0.00 | 0.00 | 58 | 1014.2 |
| 20260501211922 | 7 | 259 | 9.7 | 17.7 | 0.00 | 0.00 | 0.00 | 58 | 1014.2 |
| 20260501211802 | 7 | 296 | 8.0 | 17.7 | 0.00 | 0.00 | 0.00 | 58 | 1014.2 |
| 20260501211641 | 7 | 319 | 11.3 | 17.7 | 0.00 | 0.00 | 0.00 | 57 | 1014.1 |
| 20260501211501 | 7 | 291 | 12.9 | 17.7 | 0.00 | 0.00 | 0.00 | 57 | 1014.1 |
| 20260501211339 | 7 | 303 | 11.3 | 17.7 | 0.00 | 0.00 | 0.00 | 57 | 1014.1 |
| 20260501211135 | 7 | 281 | 9.7 | 17.7 | 0.00 | 0.00 | 0.00 | 58 | 1014.0 |
| 20260501211012 | 7 | 290 | 11.3 | 16.1 | 0.00 | 0.00 | 0.00 | 58 | 1014.1 |